AFL244 UUEE-FSIA

Flight info

Callsign AFL244
Flight time 9h 34m
Altitude 35000
Route TOGMO3H TOGMO M56 DENUD M161 MILSO M875 INDUD/K0887F370 M875 AMDAR/N0479F370 M875 TAPIS L509 LAJAK M881 LAKRA/N0478F380 G325 PG T385 TAPDO G652 GEPOT B400 HAI R401 SUHIL UM314 UDLET DCT TILOM TILOM1E
Aircraft B77W/H-SDE1E2E3FGHIJ2J3J4J5M1RWXY/LB1D1

Departure

Time 2026-04-25 21:01
Airport Sheremetyevo International Airport (UUEE)

Arrival

Time 2026-04-26 06:36
Airport Seychelles International Airport (FSIA)
Time Latitude Longitude Altitude Speed Heading
2026-04-25 19:32 55.98014 37.42972 620 ft 0 kts 204°
2026-04-25 20:44 55.98017 37.42974 619 ft 2 kts 205°
2026-04-25 20:44 55.98030 37.42986 620 ft 2 kts 204°
2026-04-25 20:45 55.98044 37.42997 620 ft 2 kts 204°
2026-04-25 20:45 55.98057 37.43008 620 ft 2 kts 204°
2026-04-25 20:45 55.98071 37.43019 620 ft 2 kts 206°
2026-04-25 20:45 55.98084 37.43033 620 ft 2 kts 216°
2026-04-25 20:46 55.98095 37.43050 621 ft 2 kts 225°
2026-04-25 20:46 55.98105 37.43070 621 ft 2 kts 233°
2026-04-25 20:46 55.98113 37.43092 621 ft 2 kts 242°
2026-04-25 20:46 55.98119 37.43117 621 ft 2 kts 251°
2026-04-25 20:47 55.98121 37.43131 621 ft 1 kts 256°
2026-04-25 20:47 55.98122 37.43132 621 ft 0 kts 256°
2026-04-25 20:52 55.98121 37.43125 621 ft 1 kts 255°
2026-04-25 20:52 55.98117 37.43103 621 ft 4 kts 255°
2026-04-25 20:52 55.98101 37.42994 620 ft 8 kts 254°
2026-04-25 20:52 55.98084 37.42887 620 ft 9 kts 254°
2026-04-25 20:53 55.98069 37.42787 620 ft 7 kts 254°
2026-04-25 20:53 55.98054 37.42706 620 ft 6 kts 242°
2026-04-25 20:53 55.98027 37.42668 619 ft 4 kts 191°
2026-04-25 20:53 55.97996 37.42669 619 ft 4 kts 175°
2026-04-25 20:54 55.97958 37.42683 619 ft 7 kts 165°
2026-04-25 20:54 55.97901 37.42708 618 ft 9 kts 165°
2026-04-25 20:54 55.97843 37.42735 617 ft 8 kts 165°
2026-04-25 20:54 55.97793 37.42764 617 ft 6 kts 148°
2026-04-25 20:55 55.97777 37.42822 616 ft 4 kts 93°
2026-04-25 20:55 55.97781 37.42877 616 ft 4 kts 76°
2026-04-25 20:55 55.97787 37.42923 616 ft 3 kts 75°
2026-04-25 20:55 55.97793 37.42960 616 ft 3 kts 75°
2026-04-25 20:56 55.97802 37.43023 616 ft 6 kts 75°
2026-04-25 20:56 55.97816 37.43122 616 ft 9 kts 75°
2026-04-25 20:56 55.97833 37.43228 617 ft 7 kts 74°
2026-04-25 20:56 55.97845 37.43309 617 ft 6 kts 74°
2026-04-25 20:57 55.97858 37.43393 618 ft 7 kts 75°
2026-04-25 20:57 55.97873 37.43495 619 ft 9 kts 75°
2026-04-25 20:57 55.97892 37.43624 620 ft 11 kts 75°
2026-04-25 20:57 55.97915 37.43775 622 ft 12 kts 75°
2026-04-25 20:58 55.97934 37.43910 623 ft 9 kts 75°
2026-04-25 20:58 55.97939 37.43998 624 ft 3 kts 109°
2026-04-25 20:58 55.97931 37.44016 624 ft 0 kts 140°
2026-04-25 20:58 55.97928 37.44021 623 ft 2 kts 148°
2026-04-25 20:59 55.97891 37.44046 623 ft 7 kts 163°
2026-04-25 20:59 55.97839 37.44071 623 ft 5 kts 165°
2026-04-25 20:59 55.97807 37.44067 622 ft 4 kts 205°
2026-04-25 20:59 55.97788 37.44035 622 ft 3 kts 234°
2026-04-25 21:00 55.97778 37.43998 622 ft 4 kts 246°
2026-04-25 21:00 55.97773 37.43977 622 ft 6 kts 250°
2026-04-25 21:00 55.97425 37.41689 623 ft 150 kts 253°
2026-04-25 21:01 55.97125 37.39590 694 ft 192 kts 253°
2026-04-25 21:01 55.96807 37.37280 1310 ft 195 kts 252°
2026-04-25 21:01 55.96481 37.34935 2102 ft 191 kts 251°
2026-04-25 21:01 55.96165 37.32719 2681 ft 186 kts 250°
2026-04-25 21:02 55.95820 37.30471 3128 ft 187 kts 249°
2026-04-25 21:02 55.95467 37.28236 3533 ft 191 kts 250°
2026-04-25 21:02 55.95106 37.25945 3933 ft 195 kts 251°
2026-04-25 21:02 55.94734 37.23600 4300 ft 202 kts 251°
2026-04-25 21:03 55.94340 37.21137 4650 ft 211 kts 251°
2026-04-25 21:03 55.93930 37.18537 4914 ft 225 kts 253°
2026-04-25 21:03 55.93504 37.15804 5313 ft 234 kts 253°
2026-04-25 21:03 55.93064 37.12996 5702 ft 244 kts 252°
2026-04-25 21:04 55.92579 37.10077 6226 ft 250 kts 252°
2026-04-25 21:04 55.92065 37.07098 6809 ft 253 kts 252°
2026-04-25 21:04 55.91605 37.04086 7410 ft 254 kts 263°
2026-04-25 21:04 55.91788 37.00981 7940 ft 261 kts 289°
2026-04-25 21:05 55.92836 36.98344 8508 ft 271 kts 318°
2026-04-25 21:05 55.94392 36.96437 9034 ft 277 kts 321°
2026-04-25 21:05 55.95983 36.94478 9503 ft 281 kts 320°
2026-04-25 21:05 55.97613 36.92550 9951 ft 287 kts 330°
2026-04-25 21:06 55.99552 36.91799 10022 ft 294 kts 357°
2026-04-25 21:06 56.01586 36.92661 10323 ft 310 kts 26°
2026-04-25 21:06 56.03332 36.94939 10835 ft 317 kts 46°
2026-04-25 21:06 56.04211 36.97064 10903 ft 329 kts 65°
2026-04-25 21:07 56.04757 37.02378 11400 ft 334 kts 99°
2026-04-25 21:07 56.04168 37.06305 11953 ft 331 kts 111°
2026-04-25 21:07 56.03439 37.10229 12550 ft 334 kts 111°
2026-04-25 21:07 56.02692 37.14158 13166 ft 335 kts 111°
2026-04-25 21:08 56.01938 37.18092 13832 ft 335 kts 111°
2026-04-25 21:08 56.01186 37.22067 14233 ft 345 kts 111°
2026-04-25 21:08 56.00444 37.26136 14944 ft 344 kts 110°
2026-04-25 21:08 55.99724 37.30170 15527 ft 348 kts 110°
2026-04-25 21:09 55.98167 37.38627 16449 ft 362 kts 110°
2026-04-25 21:09 55.97385 37.42823 17160 ft 361 kts 111°
2026-04-25 21:09 55.96583 37.47154 17596 ft 369 kts 110°
2026-04-25 21:10 55.96059 37.50037 17889 ft 373 kts 110°
2026-04-25 21:10 55.94989 37.55933 18642 ft 376 kts 110°
2026-04-25 21:10 55.94179 37.60384 19166 ft 380 kts 110°
2026-04-25 21:10 55.93359 37.64883 19587 ft 387 kts 110°
2026-04-25 21:11 55.92519 37.69477 20023 ft 392 kts 111°
2026-04-25 21:11 55.91513 37.73931 20436 ft 395 kts 121°
2026-04-25 21:11 55.90040 37.78110 20672 ft 403 kts 129°
2026-04-25 21:11 55.88354 37.82236 20748 ft 419 kts 130°
2026-04-25 21:12 55.86612 37.86453 20854 ft 434 kts 130°
2026-04-25 21:12 55.84790 37.90861 20965 ft 449 kts 129°
2026-04-25 21:12 55.82934 37.95349 21075 ft 464 kts 129°
2026-04-25 21:12 55.81645 37.98463 21266 ft 471 kts 129°
2026-04-25 21:13 55.79037 38.04755 21919 ft 479 kts 129°
2026-04-25 21:13 55.77062 38.09512 22437 ft 483 kts 129°
2026-04-25 21:13 55.75055 38.14334 22922 ft 488 kts 129°
2026-04-25 21:13 55.73018 38.19222 23419 ft 492 kts 129°
2026-04-25 21:14 55.70997 38.24059 23887 ft 497 kts 129°
2026-04-25 21:14 55.68925 38.29009 24328 ft 502 kts 129°
2026-04-25 21:14 55.66825 38.34015 24841 ft 505 kts 129°
2026-04-25 21:14 55.64738 38.38982 25343 ft 508 kts 129°
2026-04-25 21:15 55.62620 38.44011 25821 ft 512 kts 129°
2026-04-25 21:15 55.60486 38.49065 26171 ft 518 kts 129°
2026-04-25 21:15 55.58322 38.54180 26559 ft 523 kts 129°
2026-04-25 21:15 55.56167 38.59265 26960 ft 527 kts 128°
2026-04-25 21:16 55.53938 38.64514 27391 ft 531 kts 128°
2026-04-25 21:16 55.51737 38.69687 27787 ft 535 kts 129°
2026-04-25 21:16 55.49486 38.74964 28176 ft 539 kts 129°
2026-04-25 21:16 55.47240 38.80219 28564 ft 543 kts 129°
2026-04-25 21:17 55.44967 38.85525 28974 ft 546 kts 129°
2026-04-25 21:17 55.42660 38.90900 29534 ft 545 kts 129°
2026-04-25 21:17 55.40378 38.96206 30155 ft 543 kts 129°
2026-04-25 21:17 55.38084 39.01527 30701 ft 542 kts 129°
2026-04-25 21:18 55.35790 39.06836 31163 ft 542 kts 129°
2026-04-25 21:18 55.33528 39.12060 31638 ft 540 kts 129°
2026-04-25 21:18 55.31245 39.17322 32111 ft 537 kts 129°
2026-04-25 21:18 55.28995 39.22499 32498 ft 535 kts 129°
2026-04-25 21:19 55.26718 39.27722 32604 ft 536 kts 129°
2026-04-25 21:19 55.24480 39.32847 32634 ft 534 kts 129°
2026-04-25 21:19 55.19967 39.43148 32640 ft 533 kts 129°
2026-04-25 21:20 55.16211 39.51689 32636 ft 532 kts 129°
2026-04-25 21:20 55.10957 39.63586 32646 ft 533 kts 129°
2026-04-25 21:21 55.06408 39.73841 32654 ft 533 kts 130°
2026-04-25 21:21 55.01875 39.84016 32660 ft 533 kts 129°
2026-04-25 21:22 54.97314 39.94215 32666 ft 531 kts 129°
2026-04-25 21:22 54.92787 40.04293 32668 ft 530 kts 129°
2026-04-25 21:23 54.88263 40.14324 32671 ft 530 kts 130°
2026-04-25 21:23 54.83723 40.24351 32680 ft 529 kts 130°
2026-04-25 21:24 54.79172 40.34360 32678 ft 528 kts 130°
2026-04-25 21:24 54.74626 40.44319 32685 ft 528 kts 130°
2026-04-25 21:25 54.70090 40.54214 32681 ft 527 kts 130°
2026-04-25 21:25 54.65535 40.64113 32689 ft 526 kts 130°
2026-04-25 21:26 54.60987 40.73957 32686 ft 525 kts 131°
2026-04-25 21:26 54.56437 40.83765 32692 ft 524 kts 131°
2026-04-25 21:27 54.51889 40.93530 32701 ft 524 kts 131°
2026-04-25 21:27 54.47313 41.03317 32704 ft 523 kts 131°
2026-04-25 21:28 54.42755 41.13026 32700 ft 522 kts 131°
2026-04-25 21:28 54.38211 41.22667 32705 ft 523 kts 131°
2026-04-25 21:29 54.33655 41.32296 32716 ft 522 kts 131°
2026-04-25 21:29 54.29082 41.41925 32724 ft 521 kts 131°
2026-04-25 21:30 54.24508 41.51518 32724 ft 522 kts 131°
2026-04-25 21:30 54.20688 41.59500 32729 ft 521 kts 131°
2026-04-25 21:31 54.15374 41.70564 32724 ft 520 kts 132°
2026-04-25 21:31 54.10798 41.80051 32728 ft 519 kts 132°
2026-04-25 21:32 54.06203 41.89540 32740 ft 519 kts 131°
2026-04-25 21:32 54.01618 41.98973 32751 ft 518 kts 131°
2026-04-25 21:33 53.97041 42.08352 32752 ft 519 kts 131°
2026-04-25 21:33 53.92422 42.17783 32752 ft 518 kts 131°
2026-04-25 21:34 53.87801 42.27183 32747 ft 519 kts 131°
2026-04-25 21:34 53.83202 42.36500 32751 ft 518 kts 131°
2026-04-25 21:35 53.78571 42.45849 32761 ft 519 kts 131°
2026-04-25 21:35 53.73939 42.55164 32771 ft 519 kts 131°
2026-04-25 21:36 53.69384 42.64546 32766 ft 520 kts 125°
2026-04-25 21:36 53.66118 42.75453 32765 ft 522 kts 108°
2026-04-25 21:37 53.64598 42.85340 32768 ft 522 kts 103°
2026-04-25 21:37 53.62584 42.99103 32777 ft 522 kts 104°
2026-04-25 21:38 53.60782 43.10883 32793 ft 521 kts 104°
2026-04-25 21:38 53.58917 43.22764 32789 ft 521 kts 105°
2026-04-25 21:39 53.57040 43.34521 32784 ft 521 kts 105°
2026-04-25 21:39 53.55143 43.46254 32791 ft 521 kts 105°
2026-04-25 21:40 53.53216 43.58057 32792 ft 521 kts 105°
2026-04-25 21:40 53.51284 43.69790 32794 ft 520 kts 106°
2026-04-25 21:41 53.49348 43.81460 32796 ft 520 kts 106°
2026-04-25 21:41 53.47391 43.93168 32795 ft 519 kts 106°
2026-04-25 21:42 53.45443 44.04744 32796 ft 519 kts 106°
2026-04-25 21:42 53.43477 44.16351 32799 ft 519 kts 106°
2026-04-25 21:43 53.41489 44.28006 32801 ft 520 kts 106°
2026-04-25 21:43 53.39500 44.39588 32806 ft 519 kts 106°
2026-04-25 21:44 53.37492 44.51203 32808 ft 519 kts 106°
2026-04-25 21:45 53.34468 44.68554 32803 ft 519 kts 107°
2026-04-25 21:45 53.32451 44.80029 32808 ft 519 kts 107°
2026-04-25 21:46 53.30404 44.91605 32810 ft 518 kts 107°
2026-04-25 21:46 53.28341 45.03194 32821 ft 518 kts 107°
2026-04-25 21:47 53.26103 45.14580 32825 ft 519 kts 111°
2026-04-25 21:47 53.23608 45.25894 32822 ft 518 kts 111°
2026-04-25 21:48 53.21134 45.37117 32820 ft 518 kts 110°
2026-04-25 21:48 53.18636 45.48443 32818 ft 518 kts 110°
2026-04-25 21:49 53.16144 45.59706 32820 ft 518 kts 110°
2026-04-25 21:49 53.13664 45.70872 32817 ft 519 kts 111°
2026-04-25 21:50 53.11150 45.82140 32819 ft 519 kts 111°
2026-04-25 21:50 53.08662 45.93333 32820 ft 519 kts 111°
2026-04-25 21:51 53.06169 46.04545 32823 ft 519 kts 111°
2026-04-25 21:51 53.03650 46.15808 32829 ft 519 kts 111°
2026-04-25 21:52 53.01135 46.26992 32830 ft 519 kts 111°
2026-04-25 21:52 52.98602 46.38193 32832 ft 520 kts 111°
2026-04-25 21:53 52.96067 46.49346 32836 ft 520 kts 111°
2026-04-25 21:53 52.93504 46.60564 32842 ft 520 kts 111°
2026-04-25 21:54 52.90924 46.71801 32838 ft 519 kts 112°
2026-04-25 21:54 52.88348 46.82959 32836 ft 520 kts 112°
2026-04-25 21:55 52.85734 46.94221 32838 ft 521 kts 112°
2026-04-25 21:55 52.83141 47.05333 32842 ft 521 kts 112°
2026-04-25 21:56 52.80590 47.16510 32850 ft 522 kts 110°
2026-04-25 21:56 52.78206 47.27792 32857 ft 521 kts 110°
2026-04-25 21:57 52.75802 47.39085 32858 ft 522 kts 110°
2026-04-25 21:57 52.73383 47.50353 32863 ft 522 kts 110°
2026-04-25 21:58 52.70948 47.61620 32863 ft 521 kts 110°
2026-04-25 21:58 52.68518 47.72854 32863 ft 521 kts 111°
2026-04-25 21:59 52.66092 47.84004 32863 ft 522 kts 111°
2026-04-25 21:59 52.63633 47.95237 32860 ft 522 kts 111°
2026-04-25 22:00 52.59905 48.12143 32870 ft 523 kts 111°
2026-04-25 22:00 52.57394 48.23419 32890 ft 523 kts 111°
2026-04-25 22:01 52.54879 48.34656 32893 ft 523 kts 111°
2026-04-25 22:01 52.52776 48.44002 32897 ft 523 kts 111°
2026-04-25 22:02 52.49835 48.57006 32888 ft 522 kts 111°
2026-04-25 22:02 52.47301 48.68147 32884 ft 523 kts 112°
2026-04-25 22:03 52.44751 48.79299 32884 ft 522 kts 111°
2026-04-25 22:03 52.42199 48.90400 32889 ft 523 kts 112°
2026-04-25 22:04 52.39617 49.01575 32889 ft 523 kts 111°
2026-04-25 22:04 52.37025 49.12732 32892 ft 524 kts 111°
2026-04-25 22:05 52.34430 49.23816 32894 ft 523 kts 112°
2026-04-25 22:05 52.31817 49.34900 32893 ft 524 kts 112°
2026-04-25 22:06 52.29185 49.46011 32897 ft 524 kts 111°
2026-04-25 22:06 52.26561 49.57059 32893 ft 525 kts 111°
2026-04-25 22:07 52.24356 49.66294 32896 ft 524 kts 112°
2026-04-25 22:07 52.21261 49.79196 32900 ft 524 kts 112°
2026-04-25 22:08 52.18587 49.90281 32901 ft 525 kts 112°
2026-04-25 22:08 52.15914 50.01306 32901 ft 525 kts 112°
2026-04-25 22:09 52.13218 50.12369 32906 ft 526 kts 112°
2026-04-25 22:09 52.10509 50.23431 32913 ft 526 kts 112°
2026-04-25 22:10 52.07780 50.34513 32915 ft 526 kts 112°
2026-04-25 22:10 52.05047 50.45565 32914 ft 527 kts 112°
2026-04-25 22:11 52.02310 50.56571 32911 ft 526 kts 112°
2026-04-25 22:11 51.99558 50.67575 32899 ft 527 kts 114°
2026-04-25 22:12 51.95850 50.77665 32909 ft 522 kts 132°
2026-04-25 22:12 51.91514 50.84406 32913 ft 517 kts 147°
2026-04-25 22:13 51.87472 50.88393 32897 ft 511 kts 159°
2026-04-25 22:13 51.84195 50.90519 32911 ft 507 kts 166°
2026-04-25 22:13 51.77438 50.93853 32913 ft 505 kts 168°
2026-04-25 22:14 51.70717 50.96960 32915 ft 505 kts 167°
2026-04-25 22:14 51.64290 51.01776 32928 ft 515 kts 150°
2026-04-25 22:15 51.58335 51.08119 32936 ft 514 kts 149°
2026-04-25 22:16 51.49416 51.17618 32935 ft 516 kts 150°
2026-04-25 22:16 51.43435 51.23943 32939 ft 516 kts 149°
2026-04-25 22:17 51.37482 51.30327 32950 ft 516 kts 149°
2026-04-25 22:17 51.31487 51.36738 32968 ft 517 kts 149°
2026-04-25 22:18 51.25515 51.43097 32975 ft 517 kts 149°
2026-04-25 22:18 51.19528 51.49450 32978 ft 516 kts 149°
2026-04-25 22:19 51.13848 51.56564 32979 ft 523 kts 136°
2026-04-25 22:19 51.09129 51.65406 32979 ft 525 kts 132°
2026-04-25 22:20 51.04510 51.74327 32980 ft 525 kts 132°
2026-04-25 22:20 50.99856 51.83275 32985 ft 525 kts 132°
2026-04-25 22:21 50.95203 51.92182 32988 ft 525 kts 132°
2026-04-25 22:21 50.90496 52.01156 32989 ft 525 kts 132°
2026-04-25 22:22 50.85855 52.09974 32987 ft 527 kts 131°
2026-04-25 22:22 50.81171 52.18841 32989 ft 526 kts 131°
2026-04-25 22:23 50.76439 52.27766 32985 ft 527 kts 131°
2026-04-25 22:23 50.71740 52.36599 32995 ft 526 kts 132°
2026-04-25 22:24 50.67035 52.45428 32992 ft 527 kts 131°
2026-04-25 22:24 50.62334 52.54290 32993 ft 528 kts 131°
2026-04-25 22:25 50.57599 52.63185 33001 ft 528 kts 131°
2026-04-25 22:25 50.52887 52.72003 32992 ft 529 kts 132°
2026-04-25 22:26 50.48132 52.80870 32994 ft 529 kts 132°
2026-04-25 22:26 50.43388 52.89686 33006 ft 530 kts 132°
2026-04-25 22:27 50.38625 52.98508 33005 ft 529 kts 132°
2026-04-25 22:27 50.33821 53.07373 33009 ft 530 kts 132°
2026-04-25 22:28 50.29061 53.16130 33012 ft 529 kts 132°
2026-04-25 22:28 50.24278 53.24896 33001 ft 529 kts 132°
2026-04-25 22:29 50.19509 53.33608 33017 ft 530 kts 132°
2026-04-25 22:29 50.14743 53.42286 33010 ft 530 kts 132°
2026-04-25 22:30 50.07524 53.55376 33030 ft 530 kts 132°
2026-04-25 22:30 50.03524 53.62599 33019 ft 530 kts 132°
2026-04-25 22:31 49.97911 53.72703 33026 ft 530 kts 133°
2026-04-25 22:31 49.93077 53.81373 33028 ft 530 kts 133°
2026-04-25 22:32 49.88269 53.89968 33027 ft 530 kts 133°
2026-04-25 22:32 49.83425 53.98597 33013 ft 529 kts 133°
2026-04-25 22:33 49.78579 54.07202 33026 ft 531 kts 133°
2026-04-25 22:33 49.73762 54.15728 33024 ft 530 kts 133°
2026-04-25 22:34 49.68911 54.24285 33027 ft 530 kts 133°
2026-04-25 22:34 49.64030 54.32868 33025 ft 530 kts 133°
2026-04-25 22:35 49.59176 54.41375 33031 ft 529 kts 133°
2026-04-25 22:35 49.54279 54.49929 33038 ft 531 kts 133°
2026-04-25 22:36 49.49426 54.58378 33036 ft 530 kts 133°
2026-04-25 22:36 49.44537 54.66862 33040 ft 530 kts 133°
2026-04-25 22:37 49.39636 54.75339 33040 ft 531 kts 134°
2026-04-25 22:37 49.34750 54.83762 33045 ft 530 kts 134°
2026-04-25 22:38 49.29870 54.92149 33041 ft 529 kts 134°
2026-04-25 22:38 49.24932 55.00608 33052 ft 529 kts 133°
2026-04-25 22:39 49.20038 55.08965 33046 ft 529 kts 134°
2026-04-25 22:39 49.15154 55.17278 33046 ft 529 kts 134°
2026-04-25 22:40 49.10220 55.25650 33053 ft 529 kts 133°
2026-04-25 22:40 49.05302 55.33969 33043 ft 529 kts 134°
2026-04-25 22:41 49.00371 55.42286 33041 ft 528 kts 134°
2026-04-25 22:41 48.95450 55.50557 33058 ft 530 kts 134°
2026-04-25 22:42 48.90535 55.58793 33060 ft 529 kts 134°
2026-04-25 22:42 48.85566 55.67093 33055 ft 529 kts 135°
2026-04-25 22:43 48.80616 55.75328 33045 ft 529 kts 135°
2026-04-25 22:43 48.75658 55.83548 33055 ft 528 kts 135°
2026-04-25 22:44 48.70710 55.91725 33058 ft 528 kts 135°
2026-04-25 22:44 48.65748 55.99900 33055 ft 527 kts 135°
2026-04-25 22:45 48.60759 56.08092 33065 ft 529 kts 135°
2026-04-25 22:45 48.55761 56.16273 33061 ft 528 kts 135°
2026-04-25 22:46 48.50768 56.24419 33065 ft 527 kts 135°
2026-04-25 22:46 48.45796 56.32503 33047 ft 527 kts 135°
2026-04-25 22:47 48.40798 56.40605 33056 ft 529 kts 135°
2026-04-25 22:47 48.35826 56.48640 33057 ft 527 kts 135°
2026-04-25 22:48 48.30801 56.56743 33052 ft 529 kts 135°
2026-04-25 22:48 48.25797 56.64793 33064 ft 528 kts 135°
2026-04-25 22:49 48.20763 56.72866 33058 ft 528 kts 136°
2026-04-25 22:49 48.15733 56.80907 33060 ft 528 kts 136°
2026-04-25 22:50 48.10737 56.88870 33057 ft 528 kts 136°
2026-04-25 22:50 48.05713 56.96853 33061 ft 527 kts 136°
2026-04-25 22:51 48.00654 57.04867 33055 ft 528 kts 136°
2026-04-25 22:51 47.95611 57.12831 33056 ft 529 kts 136°
2026-04-25 22:52 47.90570 57.20766 33063 ft 528 kts 136°
2026-04-25 22:52 47.86338 57.27410 33066 ft 529 kts 136°
2026-04-25 22:53 47.80416 57.36681 33063 ft 530 kts 136°
2026-04-25 22:53 47.75350 57.44584 33064 ft 529 kts 137°
2026-04-25 22:54 47.70280 57.52470 33058 ft 530 kts 137°
2026-04-25 22:54 47.65184 57.60372 33063 ft 529 kts 137°
2026-04-25 22:55 47.60075 57.68271 33060 ft 530 kts 138°
2026-04-25 22:55 47.54977 57.76130 33057 ft 528 kts 138°
2026-04-25 22:56 47.49881 57.83961 33061 ft 529 kts 138°
2026-04-25 22:56 47.44781 57.91774 33055 ft 529 kts 138°
2026-04-25 22:57 47.39662 57.99595 33060 ft 528 kts 138°
2026-04-25 22:57 47.34585 58.07327 33058 ft 528 kts 138°
2026-04-25 22:58 47.29458 58.15111 33058 ft 530 kts 138°
2026-04-25 22:58 47.24316 58.22892 33058 ft 530 kts 139°
2026-04-25 22:59 47.19181 58.30641 33070 ft 530 kts 139°
2026-04-25 22:59 47.14014 58.38413 33059 ft 528 kts 139°
2026-04-25 23:00 47.08853 58.46151 33069 ft 531 kts 139°
2026-04-25 23:00 47.03682 58.53885 33058 ft 531 kts 139°
2026-04-25 23:01 46.98525 58.61574 33052 ft 529 kts 140°
2026-04-25 23:01 46.93317 58.69315 33059 ft 531 kts 141°
2026-04-25 23:02 46.88135 58.76997 33048 ft 530 kts 141°
2026-04-25 23:02 46.82975 58.84623 33062 ft 529 kts 141°
2026-04-25 23:03 46.77803 58.92244 33070 ft 530 kts 141°
2026-04-25 23:03 46.72604 58.99886 33053 ft 526 kts 141°
2026-04-25 23:04 46.68338 59.06137 33070 ft 526 kts 141°
2026-04-25 23:04 46.62286 59.14981 33072 ft 526 kts 141°
2026-04-25 23:05 46.57143 59.22472 33074 ft 527 kts 142°
2026-04-25 23:05 46.51971 59.29986 33075 ft 523 kts 141°
2026-04-25 23:06 46.46833 59.37426 33079 ft 526 kts 142°
2026-04-25 23:06 46.41648 59.44918 33084 ft 521 kts 142°
2026-04-25 23:07 46.36464 59.52378 33096 ft 528 kts 142°
2026-04-25 23:07 46.31304 59.59795 33104 ft 522 kts 142°
2026-04-25 23:08 46.26157 59.67167 33093 ft 520 kts 143°
2026-04-25 23:08 46.20997 59.74474 33087 ft 518 kts 145°
2026-04-25 23:09 46.15683 59.81493 33097 ft 517 kts 146°
2026-04-25 23:09 46.10383 59.88464 33075 ft 518 kts 146°
2026-04-25 23:10 46.05082 59.95438 33093 ft 514 kts 146°
2026-04-25 23:10 45.99751 60.02433 33114 ft 518 kts 146°
2026-04-25 23:11 45.94461 60.09367 33092 ft 514 kts 146°
2026-04-25 23:11 45.89169 60.16287 33111 ft 513 kts 146°
2026-04-25 23:12 45.83906 60.23149 33096 ft 513 kts 146°
2026-04-25 23:12 45.78610 60.30034 33107 ft 518 kts 146°
2026-04-25 23:13 45.73316 60.36907 33099 ft 512 kts 147°
2026-04-25 23:13 45.68030 60.43742 33093 ft 517 kts 146°
2026-04-25 23:14 45.62721 60.50600 33094 ft 510 kts 147°
2026-04-25 23:14 45.57424 60.57410 33098 ft 517 kts 146°
2026-04-25 23:15 45.52103 60.64247 33092 ft 512 kts 147°
2026-04-25 23:15 45.46806 60.71024 33075 ft 517 kts 147°
2026-04-25 23:16 45.41260 60.77282 33072 ft 498 kts 159°
2026-04-25 23:16 45.35216 60.81691 33081 ft 490 kts 164°
2026-04-25 23:17 45.29086 60.85939 33070 ft 491 kts 164°
2026-04-25 23:17 45.22945 60.90179 33064 ft 486 kts 164°
2026-04-25 23:18 45.16884 60.94341 33071 ft 492 kts 163°
2026-04-25 23:18 45.10749 60.98548 33070 ft 487 kts 163°
2026-04-25 23:19 45.04565 61.02767 33071 ft 493 kts 163°
2026-04-25 23:19 44.98476 61.06924 33068 ft 485 kts 163°
2026-04-25 23:20 44.92368 61.11072 33073 ft 489 kts 163°
2026-04-25 23:20 44.86224 61.15240 33080 ft 486 kts 163°
2026-04-25 23:21 44.80142 61.19354 33082 ft 487 kts 163°
2026-04-25 23:21 44.74047 61.23466 33079 ft 486 kts 163°
2026-04-25 23:22 44.67937 61.27580 33084 ft 486 kts 163°
2026-04-25 23:23 44.58889 61.33657 33082 ft 480 kts 163°
2026-04-25 23:23 44.52801 61.37728 33078 ft 483 kts 163°
2026-04-25 23:24 44.46762 61.41762 33076 ft 481 kts 163°
2026-04-25 23:24 44.40725 61.45784 33082 ft 482 kts 163°
2026-04-25 23:25 44.34673 61.49809 33078 ft 479 kts 163°
2026-04-25 23:25 44.28653 61.53798 33081 ft 483 kts 163°
2026-04-25 23:26 44.22596 61.57808 33078 ft 479 kts 163°
2026-04-25 23:26 44.16575 61.61783 33075 ft 481 kts 163°
2026-04-25 23:27 44.10548 61.65758 33067 ft 478 kts 164°
2026-04-25 23:27 44.04548 61.69710 33063 ft 479 kts 164°
2026-04-25 23:28 43.98542 61.73656 33056 ft 476 kts 164°
2026-04-25 23:28 43.92502 61.77615 33057 ft 478 kts 163°
2026-04-25 23:29 43.86476 61.81556 33077 ft 479 kts 164°
2026-04-25 23:29 43.80455 61.85485 33064 ft 478 kts 163°
2026-04-25 23:30 43.74462 61.89387 33071 ft 481 kts 164°
2026-04-25 23:30 43.68396 61.93327 33054 ft 480 kts 163°
2026-04-25 23:31 43.62350 61.97247 33054 ft 480 kts 163°
2026-04-25 23:31 43.56281 62.01170 33057 ft 483 kts 163°
2026-04-25 23:32 43.50184 62.05107 33052 ft 481 kts 163°
2026-04-25 23:32 43.44185 62.09421 33057 ft 492 kts 155°
2026-04-25 23:33 43.38535 62.14709 33051 ft 492 kts 154°
2026-04-25 23:33 43.32883 62.20018 33050 ft 496 kts 154°
2026-04-25 23:34 43.27184 62.25355 33043 ft 492 kts 154°
2026-04-25 23:34 43.21487 62.30670 33045 ft 496 kts 153°
2026-04-25 23:35 43.15796 62.35968 33042 ft 494 kts 153°
2026-04-25 23:35 43.10110 62.41247 33042 ft 494 kts 153°
2026-04-25 23:36 43.04413 62.46520 33033 ft 497 kts 153°
2026-04-25 23:36 42.98688 62.51812 33039 ft 496 kts 153°
2026-04-25 23:37 42.92949 62.57102 33031 ft 495 kts 153°
2026-04-25 23:37 42.87248 62.62347 33043 ft 492 kts 153°
2026-04-25 23:38 42.81556 62.67569 33022 ft 492 kts 154°
2026-04-25 23:38 42.75867 62.72777 33018 ft 492 kts 154°
2026-04-25 23:39 42.70185 62.77968 33020 ft 490 kts 154°
2026-04-25 23:39 42.64525 62.83125 33012 ft 490 kts 153°
2026-04-25 23:40 42.58875 62.88263 33012 ft 491 kts 153°
2026-04-25 23:40 42.53223 62.93391 33017 ft 491 kts 153°
2026-04-25 23:41 42.47561 62.98519 33016 ft 488 kts 153°
2026-04-25 23:41 42.41894 63.03637 33009 ft 489 kts 153°
2026-04-25 23:42 42.36227 63.08744 33008 ft 488 kts 153°
2026-04-25 23:42 42.30580 63.13823 32999 ft 487 kts 153°
2026-04-25 23:43 42.24981 63.18848 32995 ft 486 kts 153°
2026-04-25 23:43 42.19324 63.23911 32996 ft 487 kts 153°
2026-04-25 23:44 42.13678 63.28956 32992 ft 488 kts 153°
2026-04-25 23:44 42.08084 63.33944 32980 ft 484 kts 153°
2026-04-25 23:45 42.02490 63.38921 32973 ft 484 kts 153°
2026-04-25 23:45 41.96820 63.43952 32984 ft 485 kts 153°
2026-04-25 23:46 41.91155 63.48970 32983 ft 485 kts 153°
2026-04-25 23:46 41.85506 63.53963 32984 ft 485 kts 153°
2026-04-25 23:47 41.79887 63.58917 32981 ft 487 kts 153°
2026-04-25 23:47 41.74216 63.63909 32985 ft 487 kts 153°
2026-04-25 23:48 41.68557 63.68880 32985 ft 485 kts 153°
2026-04-25 23:48 41.62920 63.73820 32981 ft 485 kts 153°
2026-04-25 23:49 41.57226 63.78796 32984 ft 488 kts 153°
2026-04-25 23:49 41.51577 63.83727 32990 ft 485 kts 153°
2026-04-25 23:50 41.45867 63.88697 32986 ft 490 kts 153°
2026-04-25 23:50 41.40185 63.93636 32985 ft 488 kts 153°
2026-04-25 23:51 41.34437 63.98624 32992 ft 487 kts 153°
2026-04-25 23:51 41.28735 64.03563 32989 ft 489 kts 153°
2026-04-25 23:52 41.23055 64.08474 32991 ft 487 kts 153°
2026-04-25 23:52 41.17334 64.13407 32984 ft 492 kts 153°
2026-04-25 23:53 41.11603 64.18341 32978 ft 490 kts 153°
2026-04-25 23:53 41.05854 64.23278 32980 ft 492 kts 153°
2026-04-25 23:54 41.00158 64.28162 32971 ft 491 kts 153°
2026-04-25 23:54 40.94400 64.33086 32969 ft 491 kts 153°
2026-04-25 23:55 40.88625 64.38016 32973 ft 492 kts 153°
2026-04-25 23:55 40.82880 64.42908 32975 ft 492 kts 153°
2026-04-25 23:56 40.77089 64.47830 32978 ft 494 kts 153°
2026-04-25 23:56 40.71311 64.52731 32973 ft 493 kts 153°
2026-04-25 23:57 40.65499 64.57649 32970 ft 495 kts 153°
2026-04-25 23:57 40.59728 64.62524 32975 ft 498 kts 153°
2026-04-25 23:58 40.53895 64.67442 32961 ft 493 kts 154°
2026-04-25 23:58 40.48093 64.72320 32964 ft 499 kts 154°
2026-04-25 23:59 40.42285 64.77197 32963 ft 493 kts 153°
2026-04-25 23:59 40.36462 64.82074 32965 ft 495 kts 154°
2026-04-26 00:00 40.30654 64.86927 32969 ft 497 kts 154°
2026-04-26 00:00 40.24822 64.91795 32963 ft 493 kts 153°
2026-04-26 00:01 40.19003 64.96635 32966 ft 497 kts 154°
2026-04-26 00:01 40.13175 65.01477 32973 ft 497 kts 154°
2026-04-26 00:02 40.07336 65.06319 32960 ft 494 kts 153°
2026-04-26 00:02 40.01468 65.11170 32973 ft 501 kts 153°
2026-04-26 00:03 39.95628 65.15996 32978 ft 492 kts 153°
2026-04-26 00:03 39.89824 65.20775 32983 ft 498 kts 154°
2026-04-26 00:04 39.83965 65.25593 32990 ft 497 kts 154°
2026-04-26 00:04 39.78063 65.30434 32997 ft 501 kts 154°
2026-04-26 00:05 39.72140 65.35286 32995 ft 500 kts 154°
2026-04-26 00:05 39.66232 65.40112 32998 ft 502 kts 154°
2026-04-26 00:06 39.60366 65.44898 33005 ft 500 kts 154°
2026-04-26 00:06 39.54432 65.49725 32991 ft 504 kts 154°
2026-04-26 00:07 39.48501 65.54544 32980 ft 499 kts 154°
2026-04-26 00:07 39.42559 65.59357 32987 ft 505 kts 154°
2026-04-26 00:08 39.36625 65.64159 32989 ft 503 kts 154°
2026-04-26 00:08 39.30618 65.69007 32982 ft 505 kts 155°
2026-04-26 00:09 39.24659 65.73807 32987 ft 507 kts 155°
2026-04-26 00:09 39.18676 65.78619 32994 ft 504 kts 155°
2026-04-26 00:10 39.12687 65.83421 33001 ft 510 kts 155°
2026-04-26 00:10 39.06695 65.88219 33002 ft 509 kts 155°
2026-04-26 00:11 39.00606 65.93084 33005 ft 508 kts 155°
2026-04-26 00:11 38.94625 65.97853 33010 ft 512 kts 155°
2026-04-26 00:12 38.88596 66.02653 33011 ft 508 kts 155°
2026-04-26 00:12 38.82545 66.07457 33019 ft 509 kts 155°
2026-04-26 00:13 38.76475 66.12266 33021 ft 514 kts 154°
2026-04-26 00:13 38.70403 66.17071 33038 ft 512 kts 155°
2026-04-26 00:14 38.64320 66.21872 33047 ft 514 kts 154°
2026-04-26 00:14 38.58259 66.26692 33051 ft 514 kts 154°
2026-04-26 00:15 38.52233 66.31552 33077 ft 515 kts 154°
2026-04-26 00:15 38.46167 66.36432 33091 ft 516 kts 154°
2026-04-26 00:16 38.40040 66.41349 33117 ft 516 kts 154°
2026-04-26 00:16 38.33962 66.46214 33129 ft 519 kts 154°
2026-04-26 00:17 38.27831 66.51112 33147 ft 518 kts 154°
2026-04-26 00:17 38.21681 66.56014 33177 ft 522 kts 154°
2026-04-26 00:18 38.15537 66.60902 33197 ft 519 kts 154°
2026-04-26 00:18 38.09352 66.65810 33210 ft 526 kts 154°
2026-04-26 00:19 38.03145 66.70727 33221 ft 529 kts 154°
2026-04-26 00:19 37.96848 66.75676 33241 ft 529 kts 154°
2026-04-26 00:20 37.90619 66.80537 33204 ft 527 kts 154°
2026-04-26 00:20 37.84379 66.85392 33154 ft 527 kts 154°
2026-04-26 00:21 37.78138 66.90244 33119 ft 522 kts 155°
2026-04-26 00:21 37.71926 66.95059 33095 ft 529 kts 154°
2026-04-26 00:22 37.65667 66.99907 33069 ft 525 kts 154°
2026-04-26 00:22 37.59374 67.04767 33053 ft 528 kts 154°
2026-04-26 00:23 37.53113 67.09596 33047 ft 525 kts 154°
2026-04-26 00:23 37.46869 67.14400 33043 ft 528 kts 154°
2026-04-26 00:24 37.40628 67.19194 33035 ft 523 kts 154°
2026-04-26 00:24 37.34369 67.23990 33035 ft 529 kts 154°
2026-04-26 00:25 37.28109 67.28780 33027 ft 526 kts 154°
2026-04-26 00:25 37.21838 67.33568 33016 ft 525 kts 154°
2026-04-26 00:26 37.15477 67.38147 33019 ft 527 kts 157°
2026-04-26 00:26 37.09093 67.42548 33017 ft 523 kts 156°
2026-04-26 00:27 37.02709 67.46952 33013 ft 527 kts 157°
2026-04-26 00:27 36.96316 67.51367 33018 ft 523 kts 156°
2026-04-26 00:28 36.89900 67.55791 33033 ft 525 kts 156°
2026-04-26 00:28 36.83479 67.60214 33035 ft 529 kts 156°
2026-04-26 00:29 36.77056 67.64634 33048 ft 526 kts 156°
2026-04-26 00:29 36.70590 67.69075 33048 ft 524 kts 157°
2026-04-26 00:30 36.64201 67.73479 33098 ft 527 kts 157°
2026-04-26 00:30 36.57795 67.77888 33127 ft 530 kts 156°
2026-04-26 00:31 36.51353 67.82314 33171 ft 526 kts 156°
2026-04-26 00:31 36.44906 67.86734 33207 ft 527 kts 156°
2026-04-26 00:32 36.38500 67.91119 33209 ft 523 kts 156°
2026-04-26 00:32 36.28932 67.97649 33210 ft 524 kts 156°
2026-04-26 00:33 36.22520 68.02016 33260 ft 524 kts 156°
2026-04-26 00:33 36.16112 68.06370 33269 ft 528 kts 156°
2026-04-26 00:34 36.09673 68.10740 33297 ft 525 kts 156°
2026-04-26 00:34 36.03273 68.15073 33315 ft 525 kts 156°
2026-04-26 00:35 35.96848 68.19418 33359 ft 522 kts 156°
2026-04-26 00:35 35.90478 68.23714 33415 ft 523 kts 156°
2026-04-26 00:36 35.84060 68.28036 33433 ft 524 kts 156°
2026-04-26 00:36 35.77660 68.32337 33435 ft 525 kts 155°
2026-04-26 00:37 35.71221 68.36658 33447 ft 526 kts 156°
2026-04-26 00:37 35.64794 68.40962 33421 ft 526 kts 156°
2026-04-26 00:38 35.58378 68.45248 33411 ft 524 kts 156°
2026-04-26 00:38 35.51903 68.49539 33409 ft 528 kts 156°
2026-04-26 00:39 35.45475 68.53793 33465 ft 525 kts 156°
2026-04-26 00:39 35.39077 68.58016 33471 ft 527 kts 156°
2026-04-26 00:40 35.32616 68.62277 33495 ft 525 kts 156°
2026-04-26 00:40 35.26173 68.66517 33525 ft 524 kts 156°
2026-04-26 00:41 35.19765 68.70726 33521 ft 526 kts 156°
2026-04-26 00:41 35.13282 68.74976 33483 ft 526 kts 156°
2026-04-26 00:42 35.06789 68.79227 33478 ft 525 kts 156°
2026-04-26 00:42 35.00343 68.83438 33450 ft 530 kts 156°
2026-04-26 00:43 34.93861 68.87666 33448 ft 526 kts 156°
2026-04-26 00:43 34.87401 68.91872 33430 ft 527 kts 156°
2026-04-26 00:44 34.80941 68.96069 33431 ft 527 kts 156°
2026-04-26 00:44 34.74446 69.00283 33405 ft 526 kts 156°
2026-04-26 00:45 34.67955 69.04485 33387 ft 528 kts 155°
2026-04-26 00:45 34.61460 69.08684 33371 ft 528 kts 155°
2026-04-26 00:46 34.55128 69.13274 33348 ft 531 kts 144°
2026-04-26 00:46 34.50002 69.19689 33367 ft 539 kts 127°
2026-04-26 00:47 34.46285 69.27597 33377 ft 541 kts 117°
2026-04-26 00:47 34.42850 69.35741 33398 ft 541 kts 117°
2026-04-26 00:48 34.39396 69.43892 33430 ft 542 kts 117°
2026-04-26 00:48 34.35928 69.52042 33464 ft 541 kts 117°
2026-04-26 00:49 34.32469 69.60145 33457 ft 541 kts 117°
2026-04-26 00:49 34.29007 69.68230 33434 ft 543 kts 117°
2026-04-26 00:50 34.25522 69.76349 33412 ft 542 kts 117°
2026-04-26 00:50 34.22023 69.84478 33422 ft 545 kts 117°
2026-04-26 00:51 34.18534 69.92567 33431 ft 545 kts 117°
2026-04-26 00:51 34.15036 70.00613 33456 ft 542 kts 117°
2026-04-26 00:52 34.11485 70.08723 33460 ft 542 kts 117°
2026-04-26 00:52 34.07959 70.16761 33466 ft 542 kts 118°
2026-04-26 00:53 34.04423 70.24803 33459 ft 543 kts 118°
2026-04-26 00:53 34.00876 70.32853 33461 ft 543 kts 118°
2026-04-26 00:54 33.96730 70.40417 33446 ft 541 kts 133°
2026-04-26 00:54 33.91060 70.46276 33403 ft 533 kts 151°
2026-04-26 00:55 33.84415 70.49942 33340 ft 522 kts 168°
2026-04-26 00:55 33.77279 70.51402 33306 ft 515 kts 179°
2026-04-26 00:56 33.70167 70.52161 33290 ft 514 kts 180°
2026-04-26 00:56 33.62997 70.52891 33249 ft 513 kts 180°
2026-04-26 00:57 33.55885 70.53600 33196 ft 513 kts 180°
2026-04-26 00:57 33.48694 70.54308 33152 ft 514 kts 180°
2026-04-26 00:58 33.41566 70.55005 33123 ft 511 kts 180°
2026-04-26 00:58 33.34452 70.55695 33089 ft 513 kts 180°
2026-04-26 00:59 33.27337 70.56384 33050 ft 512 kts 179°
2026-04-26 00:59 33.20213 70.57072 33020 ft 513 kts 179°
2026-04-26 01:00 33.13117 70.57756 33002 ft 510 kts 180°
2026-04-26 01:00 33.05997 70.58440 32982 ft 512 kts 179°
2026-04-26 01:01 32.98904 70.58935 32932 ft 507 kts 187°
2026-04-26 01:01 32.92078 70.57446 32938 ft 498 kts 204°
2026-04-26 01:02 32.88887 70.55772 33287 ft 492 kts 213°
2026-04-26 01:02 32.85987 70.53713 33882 ft 487 kts 217°
2026-04-26 01:02 32.80270 70.49425 33921 ft 481 kts 217°
2026-04-26 01:03 32.74658 70.45177 33929 ft 480 kts 217°
2026-04-26 01:03 32.69000 70.40883 33958 ft 481 kts 217°
2026-04-26 01:04 32.63379 70.36614 33987 ft 482 kts 217°
2026-04-26 01:04 32.57596 70.32554 34008 ft 483 kts 215°
2026-04-26 01:05 32.51781 70.28535 34020 ft 483 kts 215°
2026-04-26 01:05 32.45948 70.24496 34025 ft 482 kts 214°
2026-04-26 01:06 32.40155 70.20483 34018 ft 482 kts 215°
2026-04-26 01:06 32.34364 70.16431 34022 ft 482 kts 216°
2026-04-26 01:07 32.28633 70.12285 34009 ft 482 kts 216°
2026-04-26 01:07 32.22900 70.08147 34002 ft 481 kts 216°
2026-04-26 01:08 32.17157 70.04011 34006 ft 482 kts 216°
2026-04-26 01:08 32.11450 69.99910 34009 ft 480 kts 216°
2026-04-26 01:09 32.05722 69.95800 34025 ft 482 kts 215°
2026-04-26 01:09 31.99977 69.91685 34015 ft 482 kts 215°
2026-04-26 01:10 31.94226 69.87573 34059 ft 482 kts 215°
2026-04-26 01:10 31.88457 69.83454 34067 ft 482 kts 215°
2026-04-26 01:11 31.82754 69.79388 34106 ft 481 kts 215°
2026-04-26 01:11 31.77003 69.75294 34140 ft 481 kts 215°
2026-04-26 01:12 31.71260 69.71211 34157 ft 481 kts 215°
2026-04-26 01:12 31.65545 69.67155 34173 ft 481 kts 215°
2026-04-26 01:13 31.59799 69.63082 34202 ft 480 kts 215°
2026-04-26 01:13 31.54081 69.59036 34199 ft 480 kts 215°
2026-04-26 01:14 31.48379 69.55005 34205 ft 480 kts 215°
2026-04-26 01:14 31.42636 69.50952 34207 ft 480 kts 215°
2026-04-26 01:15 31.36926 69.46837 34222 ft 477 kts 220°
2026-04-26 01:15 31.32137 69.41607 34257 ft 472 kts 231°
2026-04-26 01:16 31.27697 69.35938 34260 ft 471 kts 231°
2026-04-26 01:16 31.23263 69.30285 34255 ft 471 kts 230°
2026-04-26 01:17 31.18853 69.24674 34249 ft 470 kts 230°
2026-04-26 01:17 31.14390 69.19006 34264 ft 471 kts 230°
2026-04-26 01:18 31.09953 69.13382 34269 ft 470 kts 230°
2026-04-26 01:18 31.05541 69.07799 34274 ft 470 kts 230°
2026-04-26 01:19 31.01097 69.02182 34276 ft 471 kts 230°
2026-04-26 01:19 30.96657 68.96581 34279 ft 470 kts 230°
2026-04-26 01:20 30.92188 68.90949 34286 ft 471 kts 230°
2026-04-26 01:20 30.87749 68.85365 34283 ft 472 kts 230°
2026-04-26 01:21 30.83292 68.79768 34286 ft 471 kts 230°
2026-04-26 01:21 30.78852 68.74197 34269 ft 471 kts 230°
2026-04-26 01:22 30.74395 68.68616 34261 ft 471 kts 230°
2026-04-26 01:22 30.69917 68.63016 34261 ft 472 kts 230°
2026-04-26 01:23 30.65441 68.57426 34274 ft 471 kts 230°
2026-04-26 01:23 30.60966 68.51846 34280 ft 472 kts 230°
2026-04-26 01:24 30.56478 68.46257 34272 ft 471 kts 230°
2026-04-26 01:24 30.51987 68.40672 34277 ft 473 kts 230°
2026-04-26 01:25 30.47485 68.35084 34298 ft 472 kts 230°
2026-04-26 01:25 30.43003 68.29527 34309 ft 473 kts 230°
2026-04-26 01:26 30.38512 68.23968 34297 ft 473 kts 230°
2026-04-26 01:26 30.33988 68.18375 34286 ft 473 kts 230°
2026-04-26 01:27 30.29505 68.12841 34282 ft 473 kts 230°
2026-04-26 01:27 30.24986 68.07272 34283 ft 473 kts 230°
2026-04-26 01:28 30.20490 68.01736 34252 ft 473 kts 230°
2026-04-26 01:28 30.15974 67.96182 34239 ft 472 kts 230°
2026-04-26 01:29 30.11472 67.90655 34185 ft 475 kts 230°
2026-04-26 01:29 30.06959 67.85107 34098 ft 475 kts 230°
2026-04-26 01:30 30.02442 67.79508 34111 ft 476 kts 230°
2026-04-26 01:30 29.97922 67.73916 34071 ft 476 kts 230°
2026-04-26 01:31 29.93400 67.68330 34079 ft 476 kts 230°
2026-04-26 01:31 29.88883 67.62760 34074 ft 476 kts 230°
2026-04-26 01:32 29.84380 67.57215 34086 ft 475 kts 230°
2026-04-26 01:32 29.79853 67.51649 34106 ft 476 kts 231°
2026-04-26 01:33 29.75325 67.46089 34125 ft 476 kts 230°
2026-04-26 01:33 29.70788 67.40513 34188 ft 476 kts 230°
2026-04-26 01:34 29.66281 67.34967 34190 ft 476 kts 230°
2026-04-26 01:34 29.61743 67.29391 34234 ft 476 kts 230°
2026-04-26 01:35 29.57214 67.23834 34243 ft 477 kts 230°
2026-04-26 01:35 29.52654 67.18248 34260 ft 476 kts 230°
2026-04-26 01:36 29.48108 67.12687 34279 ft 477 kts 230°
2026-04-26 01:37 29.41327 67.04406 34324 ft 477 kts 230°
2026-04-26 01:37 29.36764 66.98843 34348 ft 477 kts 230°
2026-04-26 01:38 29.32230 66.93324 34357 ft 476 kts 230°
2026-04-26 01:38 29.27666 66.87777 34368 ft 476 kts 230°
2026-04-26 01:39 29.23138 66.82280 34396 ft 477 kts 230°
2026-04-26 01:39 29.18598 66.76776 34416 ft 476 kts 230°
2026-04-26 01:40 29.14043 66.71263 34416 ft 475 kts 230°
2026-04-26 01:40 29.09480 66.65746 34409 ft 476 kts 230°
2026-04-26 01:41 29.04914 66.60234 34397 ft 476 kts 230°
2026-04-26 01:41 29.00354 66.54723 34383 ft 475 kts 230°
2026-04-26 01:42 28.95821 66.49238 34369 ft 476 kts 230°
2026-04-26 01:42 28.91276 66.43744 34373 ft 476 kts 230°
2026-04-26 01:43 28.86709 66.38233 34375 ft 477 kts 230°
2026-04-26 01:43 28.82175 66.32770 34372 ft 476 kts 229°
2026-04-26 01:44 28.77600 66.27264 34357 ft 476 kts 229°
2026-04-26 01:44 28.73048 66.21795 34338 ft 475 kts 229°
2026-04-26 01:45 28.68494 66.16329 34335 ft 474 kts 229°
2026-04-26 01:45 28.63957 66.10892 34331 ft 474 kts 229°
2026-04-26 01:46 28.59410 66.05450 34331 ft 474 kts 229°
2026-04-26 01:46 28.54824 65.99970 34329 ft 475 kts 229°
2026-04-26 01:47 28.50271 65.94534 34309 ft 476 kts 229°
2026-04-26 01:47 28.45705 65.89092 34273 ft 474 kts 229°
2026-04-26 01:48 28.41125 65.83639 34240 ft 474 kts 229°
2026-04-26 01:48 28.36577 65.78234 34214 ft 474 kts 229°
2026-04-26 01:49 28.32013 65.72814 34199 ft 474 kts 229°
2026-04-26 01:49 28.27461 65.67417 34175 ft 473 kts 229°
2026-04-26 01:50 28.22896 65.62013 34151 ft 473 kts 229°
2026-04-26 01:50 28.18351 65.56638 34136 ft 474 kts 229°
2026-04-26 01:51 28.13784 65.51244 34105 ft 474 kts 229°
2026-04-26 01:51 28.09201 65.45838 34086 ft 475 kts 229°
2026-04-26 01:52 28.04639 65.40466 34089 ft 476 kts 229°
2026-04-26 01:52 28.00053 65.35071 34076 ft 475 kts 229°
2026-04-26 01:53 27.95452 65.29665 34068 ft 475 kts 229°
2026-04-26 01:53 27.90860 65.24277 34077 ft 475 kts 229°
2026-04-26 01:54 27.86266 65.18894 34057 ft 475 kts 229°
2026-04-26 01:54 27.81637 65.13477 34068 ft 477 kts 229°
2026-04-26 01:55 27.77039 65.08104 34061 ft 476 kts 229°
2026-04-26 01:55 27.72420 65.02713 34062 ft 476 kts 229°
2026-04-26 01:56 27.67811 64.97341 34077 ft 476 kts 229°
2026-04-26 01:56 27.63189 64.91959 34097 ft 477 kts 229°
2026-04-26 01:57 27.58556 64.86573 34121 ft 477 kts 229°
2026-04-26 01:57 27.53949 64.81225 34139 ft 477 kts 229°
2026-04-26 01:58 27.49345 64.75885 34161 ft 477 kts 229°
2026-04-26 01:58 27.44689 64.70493 34146 ft 477 kts 229°
2026-04-26 01:59 27.40090 64.65173 34136 ft 478 kts 229°
2026-04-26 01:59 27.35418 64.59776 34124 ft 478 kts 229°
2026-04-26 02:00 27.30797 64.54445 34135 ft 477 kts 229°
2026-04-26 02:00 27.26137 64.49075 34149 ft 478 kts 229°
2026-04-26 02:01 27.21494 64.43733 34157 ft 478 kts 229°
2026-04-26 02:01 27.16833 64.38375 34136 ft 478 kts 229°
2026-04-26 02:02 27.12171 64.33024 34136 ft 480 kts 228°
2026-04-26 02:02 27.07482 64.27649 34125 ft 481 kts 228°
2026-04-26 02:03 27.02803 64.22291 34110 ft 482 kts 228°
2026-04-26 02:03 26.98084 64.16894 34097 ft 482 kts 228°
2026-04-26 02:04 26.93399 64.11555 34094 ft 481 kts 228°
2026-04-26 02:04 26.88681 64.06226 34085 ft 483 kts 228°
2026-04-26 02:05 26.83937 64.00874 34074 ft 483 kts 228°
2026-04-26 02:05 26.79185 63.95518 34068 ft 483 kts 228°
2026-04-26 02:06 26.74476 63.90217 34060 ft 482 kts 228°
2026-04-26 02:06 26.69765 63.84920 34061 ft 481 kts 228°
2026-04-26 02:07 26.65021 63.79592 34056 ft 481 kts 228°
2026-04-26 02:07 26.60238 63.74226 34055 ft 483 kts 228°
2026-04-26 02:08 26.55500 63.68917 34052 ft 483 kts 228°
2026-04-26 02:08 26.50739 63.63591 34052 ft 483 kts 228°
2026-04-26 02:09 26.45989 63.58283 34044 ft 483 kts 228°
2026-04-26 02:09 26.41251 63.52994 34030 ft 481 kts 228°
2026-04-26 02:10 26.36492 63.47689 34003 ft 482 kts 228°
2026-04-26 02:10 26.31755 63.42414 33991 ft 483 kts 228°
2026-04-26 02:11 26.26991 63.37116 33976 ft 484 kts 228°
2026-04-26 02:11 26.22232 63.31830 33966 ft 484 kts 227°
2026-04-26 02:12 26.17447 63.26522 33951 ft 485 kts 227°
2026-04-26 02:12 26.12655 63.21213 33928 ft 484 kts 227°
2026-04-26 02:13 26.07884 63.15933 33899 ft 485 kts 227°
2026-04-26 02:13 26.03071 63.10614 33881 ft 485 kts 227°
2026-04-26 02:14 25.98280 63.05320 33858 ft 487 kts 227°
2026-04-26 02:14 25.93453 62.99974 33853 ft 487 kts 228°
2026-04-26 02:15 25.88688 62.94704 33849 ft 485 kts 227°
2026-04-26 02:15 25.83879 62.89391 33844 ft 485 kts 227°
2026-04-26 02:16 25.79096 62.84112 33839 ft 486 kts 227°
2026-04-26 02:16 25.74301 62.78830 33837 ft 487 kts 227°
2026-04-26 02:17 25.69478 62.73521 33835 ft 486 kts 228°
2026-04-26 02:17 25.64682 62.68249 33833 ft 486 kts 228°
2026-04-26 02:18 25.59885 62.62982 33833 ft 486 kts 228°
2026-04-26 02:18 25.55094 62.57728 33836 ft 485 kts 228°
2026-04-26 02:19 25.50295 62.52471 33837 ft 485 kts 228°
2026-04-26 02:19 25.45479 62.47202 33837 ft 486 kts 228°
2026-04-26 02:20 25.40667 62.41944 33835 ft 485 kts 228°
2026-04-26 02:20 25.35858 62.36695 33828 ft 484 kts 228°
2026-04-26 02:21 25.31037 62.31439 33827 ft 485 kts 227°
2026-04-26 02:21 25.26230 62.26205 33820 ft 484 kts 227°
2026-04-26 02:22 25.21414 62.20967 33813 ft 485 kts 227°
2026-04-26 02:22 25.16589 62.15725 33822 ft 486 kts 227°
2026-04-26 02:23 25.11779 62.10506 33832 ft 486 kts 227°
2026-04-26 02:23 25.06984 62.05310 33829 ft 484 kts 227°
2026-04-26 02:24 25.02158 62.00086 33829 ft 484 kts 227°
2026-04-26 02:24 24.97350 61.94888 33831 ft 486 kts 227°
2026-04-26 02:25 24.92498 61.89646 33831 ft 486 kts 227°
2026-04-26 02:25 24.87667 61.84436 33828 ft 485 kts 227°
2026-04-26 02:26 24.82829 61.79222 33830 ft 486 kts 227°
2026-04-26 02:26 24.78023 61.74050 33827 ft 484 kts 227°
2026-04-26 02:27 24.73176 61.68840 33830 ft 485 kts 227°
2026-04-26 02:27 24.68356 61.63663 33828 ft 485 kts 227°
2026-04-26 02:28 24.63513 61.58469 33832 ft 485 kts 227°
2026-04-26 02:28 24.58693 61.53305 33836 ft 486 kts 227°
2026-04-26 02:29 24.53861 61.48134 33833 ft 486 kts 227°
2026-04-26 02:29 24.48982 61.42918 33834 ft 486 kts 227°
2026-04-26 02:30 24.44164 61.37775 33834 ft 485 kts 227°
2026-04-26 02:30 24.39970 61.32039 33835 ft 480 kts 243°
2026-04-26 02:31 24.37370 61.25336 33843 ft 476 kts 253°
2026-04-26 02:31 24.35156 61.18440 33839 ft 476 kts 253°
2026-04-26 02:32 24.32944 61.11584 33845 ft 476 kts 252°
2026-04-26 02:32 24.30737 61.04770 33840 ft 477 kts 252°
2026-04-26 02:33 24.28505 60.97902 33845 ft 476 kts 252°
2026-04-26 02:33 24.26268 60.91034 33842 ft 477 kts 252°
2026-04-26 02:34 24.24034 60.84193 33844 ft 477 kts 252°
2026-04-26 02:34 24.21793 60.77341 33839 ft 476 kts 252°
2026-04-26 02:35 24.19547 60.70488 33844 ft 477 kts 252°
2026-04-26 02:35 24.17301 60.63648 33843 ft 476 kts 252°
2026-04-26 02:36 24.15060 60.56834 33844 ft 478 kts 252°
2026-04-26 02:36 24.12791 60.49948 33845 ft 478 kts 252°
2026-04-26 02:37 24.10553 60.43166 33848 ft 479 kts 252°
2026-04-26 02:37 24.08277 60.36282 33847 ft 479 kts 252°
2026-04-26 02:38 24.06022 60.29472 33849 ft 478 kts 252°
2026-04-26 02:38 24.03751 60.22626 33848 ft 479 kts 252°
2026-04-26 02:39 24.01472 60.15768 33845 ft 479 kts 252°
2026-04-26 02:39 23.99187 60.08902 33849 ft 479 kts 252°
2026-04-26 02:40 23.96908 60.02067 33849 ft 479 kts 252°
2026-04-26 02:40 23.94622 59.95222 33847 ft 480 kts 252°
2026-04-26 02:41 23.92328 59.88366 33848 ft 479 kts 252°
2026-04-26 02:41 23.90033 59.81515 33848 ft 479 kts 252°
2026-04-26 02:42 23.87744 59.74696 33844 ft 479 kts 252°
2026-04-26 02:42 23.85445 59.67857 33845 ft 479 kts 252°
2026-04-26 02:43 23.81998 59.57628 33838 ft 480 kts 252°
2026-04-26 02:43 23.79695 59.50806 33832 ft 479 kts 252°
2026-04-26 02:44 23.77274 59.43994 33832 ft 479 kts 251°
2026-04-26 02:44 23.74839 59.37262 33841 ft 479 kts 252°
2026-04-26 02:45 23.72390 59.30487 33850 ft 479 kts 251°
2026-04-26 02:45 23.69949 59.23738 33863 ft 480 kts 251°
2026-04-26 02:46 23.67485 59.16931 33862 ft 480 kts 251°
2026-04-26 02:46 23.65025 59.10143 33869 ft 482 kts 251°
2026-04-26 02:47 23.62555 59.03340 33874 ft 482 kts 252°
2026-04-26 02:47 23.60099 58.96582 33879 ft 481 kts 252°
2026-04-26 02:48 23.57639 58.89826 33878 ft 480 kts 252°
2026-04-26 02:48 23.55173 58.83063 33890 ft 480 kts 251°
2026-04-26 02:49 23.52704 58.76301 33905 ft 480 kts 251°
2026-04-26 02:49 23.50237 58.69556 33903 ft 480 kts 251°
2026-04-26 02:50 23.47755 58.62780 33903 ft 481 kts 251°
2026-04-26 02:50 23.45272 58.56015 33909 ft 479 kts 251°
2026-04-26 02:51 23.42779 58.49229 33923 ft 482 kts 251°
2026-04-26 02:51 23.40293 58.42482 33930 ft 481 kts 251°
2026-04-26 02:52 23.37743 58.35782 33938 ft 479 kts 251°
2026-04-26 02:52 23.35165 58.29033 33961 ft 480 kts 250°
2026-04-26 02:53 23.32599 58.22320 33996 ft 480 kts 250°
2026-04-26 02:53 23.30028 58.15601 34004 ft 478 kts 250°
2026-04-26 02:54 23.27466 58.08914 34011 ft 480 kts 250°
2026-04-26 02:54 23.24073 58.02588 34022 ft 488 kts 234°
2026-04-26 02:55 23.19012 57.97541 34035 ft 496 kts 218°
2026-04-26 02:55 23.13184 57.93363 34053 ft 498 kts 217°
2026-04-26 02:56 23.07352 57.89231 34079 ft 499 kts 217°
2026-04-26 02:56 23.01508 57.85095 34105 ft 501 kts 217°
2026-04-26 02:57 22.95651 57.80969 34100 ft 501 kts 217°
2026-04-26 02:57 22.89776 57.76846 34084 ft 501 kts 215°
2026-04-26 02:58 22.83532 57.73408 34057 ft 505 kts 209°
2026-04-26 02:58 22.77160 57.70113 34043 ft 506 kts 209°
2026-04-26 02:59 22.70790 57.66820 34018 ft 507 kts 209°
2026-04-26 02:59 22.64390 57.63512 34015 ft 508 kts 209°
2026-04-26 03:00 22.57999 57.60211 34003 ft 509 kts 209°
2026-04-26 03:00 22.51594 57.56906 33995 ft 510 kts 209°
2026-04-26 03:01 22.45184 57.53602 33991 ft 509 kts 209°
2026-04-26 03:01 22.38754 57.50290 33981 ft 509 kts 209°
2026-04-26 03:02 22.32364 57.47001 33976 ft 512 kts 209°
2026-04-26 03:02 22.25900 57.43676 33974 ft 510 kts 209°
2026-04-26 03:03 22.19496 57.40385 33968 ft 511 kts 209°
2026-04-26 03:03 22.13096 57.37099 33961 ft 509 kts 209°
2026-04-26 03:04 22.06694 57.33815 33962 ft 511 kts 208°
2026-04-26 03:04 22.00252 57.30515 33957 ft 510 kts 208°
2026-04-26 03:05 21.93828 57.27227 33954 ft 510 kts 208°
2026-04-26 03:05 21.87339 57.23909 33944 ft 510 kts 208°
2026-04-26 03:06 21.80905 57.20622 33942 ft 512 kts 208°
2026-04-26 03:06 21.74443 57.17324 33937 ft 511 kts 208°
2026-04-26 03:07 21.67957 57.14022 33933 ft 513 kts 208°
2026-04-26 03:07 21.61502 57.10744 33936 ft 515 kts 208°
2026-04-26 03:08 21.54971 57.07421 33931 ft 514 kts 209°
2026-04-26 03:08 21.48521 57.04141 33932 ft 513 kts 208°
2026-04-26 03:09 21.42044 57.00849 33930 ft 517 kts 208°
2026-04-26 03:09 21.35498 56.97527 33925 ft 517 kts 208°
2026-04-26 03:10 21.28972 56.94218 33928 ft 517 kts 208°
2026-04-26 03:10 21.22440 56.90911 33927 ft 518 kts 209°
2026-04-26 03:11 21.15901 56.87605 33928 ft 516 kts 208°
2026-04-26 03:11 21.09373 56.84307 33930 ft 517 kts 208°
2026-04-26 03:12 21.02871 56.81027 33935 ft 518 kts 208°
2026-04-26 03:12 20.96328 56.77728 33941 ft 519 kts 208°
2026-04-26 03:13 20.89793 56.74436 33944 ft 520 kts 208°
2026-04-26 03:13 20.83230 56.71139 33934 ft 518 kts 208°
2026-04-26 03:14 20.76699 56.67861 33937 ft 518 kts 208°
2026-04-26 03:14 20.70137 56.64570 33938 ft 520 kts 208°
2026-04-26 03:15 20.63580 56.61285 33933 ft 520 kts 208°
2026-04-26 03:15 20.57029 56.58007 33928 ft 521 kts 208°
2026-04-26 03:16 20.50449 56.54717 33938 ft 519 kts 208°
2026-04-26 03:16 20.43886 56.51438 33937 ft 518 kts 208°
2026-04-26 03:17 20.37326 56.48164 33940 ft 518 kts 208°
2026-04-26 03:17 20.30746 56.44876 33936 ft 519 kts 208°
2026-04-26 03:18 20.24201 56.41609 33938 ft 518 kts 208°
2026-04-26 03:18 20.17630 56.38331 33937 ft 517 kts 208°
2026-04-26 03:19 20.11055 56.35054 33935 ft 519 kts 208°
2026-04-26 03:19 20.04520 56.31800 33937 ft 520 kts 208°
2026-04-26 03:20 19.97947 56.28582 33934 ft 520 kts 204°
2026-04-26 03:20 19.90892 56.26402 33938 ft 523 kts 197°
2026-04-26 03:21 19.83790 56.24484 33932 ft 523 kts 196°
2026-04-26 03:21 19.76697 56.22570 33933 ft 524 kts 196°
2026-04-26 03:22 19.69606 56.20657 33938 ft 526 kts 196°
2026-04-26 03:22 19.62532 56.18749 33939 ft 524 kts 196°
2026-04-26 03:23 19.55409 56.16828 33947 ft 526 kts 196°
2026-04-26 03:23 19.48321 56.14920 33953 ft 524 kts 196°
2026-04-26 03:24 19.41165 56.12994 33954 ft 526 kts 196°
2026-04-26 03:24 19.34049 56.11081 33957 ft 528 kts 196°
2026-04-26 03:25 19.26929 56.09168 33956 ft 526 kts 196°
2026-04-26 03:25 19.19809 56.07257 33959 ft 528 kts 196°
2026-04-26 03:26 19.12731 56.05359 33959 ft 526 kts 196°
2026-04-26 03:26 19.05607 56.03450 33963 ft 527 kts 196°
2026-04-26 03:27 18.98471 56.01540 33966 ft 528 kts 196°
2026-04-26 03:27 18.91293 55.99620 34407 ft 534 kts 196°
2026-04-26 03:28 18.87701 55.98661 35115 ft 529 kts 196°
2026-04-26 03:28 18.84126 55.97707 35695 ft 527 kts 197°
2026-04-26 03:28 18.80534 55.96748 35947 ft 530 kts 197°
2026-04-26 03:28 18.76960 55.95795 35961 ft 530 kts 197°
2026-04-26 03:29 18.69849 55.93899 35962 ft 528 kts 197°
2026-04-26 03:29 18.62697 55.91994 35967 ft 530 kts 197°
2026-04-26 03:30 18.55554 55.90093 35975 ft 527 kts 197°
2026-04-26 03:30 18.48415 55.88195 35982 ft 529 kts 196°
2026-04-26 03:31 18.41283 55.86299 35984 ft 529 kts 197°
2026-04-26 03:31 18.34089 55.84390 35986 ft 530 kts 196°
2026-04-26 03:32 18.26938 55.82493 35991 ft 528 kts 197°
2026-04-26 03:32 18.19803 55.80603 35993 ft 530 kts 197°
2026-04-26 03:33 18.12608 55.78697 35992 ft 529 kts 196°
2026-04-26 03:33 18.05444 55.76802 35995 ft 530 kts 196°
2026-04-26 03:34 17.98215 55.74972 35988 ft 531 kts 191°
2026-04-26 03:34 17.90858 55.73958 35987 ft 533 kts 188°
2026-04-26 03:35 17.83514 55.73023 35960 ft 531 kts 188°
2026-04-26 03:35 17.76163 55.72085 35951 ft 533 kts 188°
2026-04-26 03:36 17.68756 55.71139 35947 ft 534 kts 188°
2026-04-26 03:36 17.61471 55.70209 35946 ft 534 kts 188°
2026-04-26 03:37 17.54056 55.69262 35948 ft 533 kts 188°
2026-04-26 03:37 17.46651 55.68316 35951 ft 535 kts 188°
2026-04-26 03:38 17.39253 55.67372 35950 ft 535 kts 188°
2026-04-26 03:38 17.31876 55.66432 35953 ft 535 kts 188°
2026-04-26 03:39 17.24485 55.65490 35955 ft 535 kts 188°
2026-04-26 03:39 17.17061 55.64545 35955 ft 536 kts 188°
2026-04-26 03:40 17.09646 55.63602 35956 ft 537 kts 188°
2026-04-26 03:40 17.02224 55.62659 35957 ft 534 kts 188°
2026-04-26 03:41 16.94788 55.61715 35958 ft 537 kts 187°
2026-04-26 03:41 16.87356 55.60772 35946 ft 537 kts 188°
2026-04-26 03:42 16.79951 55.59845 35947 ft 536 kts 188°
2026-04-26 03:42 16.72486 55.58911 35947 ft 537 kts 187°
2026-04-26 03:43 16.65057 55.57983 35949 ft 538 kts 187°
2026-04-26 03:43 16.57618 55.57054 35949 ft 538 kts 187°
2026-04-26 03:44 16.50164 55.56123 35951 ft 536 kts 187°
2026-04-26 03:44 16.42740 55.55197 35953 ft 537 kts 187°
2026-04-26 03:45 16.35267 55.54266 35953 ft 539 kts 187°
2026-04-26 03:45 16.27815 55.53338 35950 ft 538 kts 187°
2026-04-26 03:46 16.20351 55.52409 35947 ft 538 kts 187°
2026-04-26 03:47 16.09161 55.51018 35943 ft 538 kts 187°
2026-04-26 03:47 16.01650 55.50085 35938 ft 539 kts 187°
2026-04-26 03:48 15.94222 55.49163 35938 ft 539 kts 187°
2026-04-26 03:48 15.86729 55.48233 35922 ft 538 kts 187°
2026-04-26 03:49 15.79255 55.47307 35925 ft 539 kts 187°
2026-04-26 03:49 15.71780 55.46381 35928 ft 541 kts 187°
2026-04-26 03:50 15.64282 55.45454 35931 ft 539 kts 187°
2026-04-26 03:50 15.56797 55.44528 35936 ft 539 kts 187°
2026-04-26 03:51 15.49329 55.43605 35938 ft 540 kts 187°
2026-04-26 03:51 15.41840 55.42680 35942 ft 540 kts 187°
2026-04-26 03:52 15.34326 55.41753 35946 ft 541 kts 187°
2026-04-26 03:52 15.26879 55.40835 35949 ft 539 kts 187°
2026-04-26 03:53 15.19327 55.39905 35951 ft 541 kts 187°
2026-04-26 03:53 15.11837 55.38970 35959 ft 540 kts 187°
2026-04-26 03:54 15.04373 55.38034 35957 ft 541 kts 187°
2026-04-26 03:54 14.96889 55.37097 35959 ft 541 kts 187°
2026-04-26 03:55 14.89376 55.36157 35958 ft 540 kts 187°
2026-04-26 03:55 14.81855 55.35216 35947 ft 540 kts 187°
2026-04-26 03:56 14.74361 55.34280 35944 ft 541 kts 186°
2026-04-26 03:56 14.66829 55.33340 35948 ft 542 kts 186°
2026-04-26 03:57 14.59301 55.32402 35946 ft 541 kts 186°
2026-04-26 03:57 14.51776 55.31464 35947 ft 540 kts 186°
2026-04-26 03:58 14.44341 55.30538 35951 ft 541 kts 186°
2026-04-26 03:58 14.36799 55.29599 35951 ft 541 kts 186°
2026-04-26 03:59 14.29304 55.28667 35952 ft 541 kts 186°
2026-04-26 03:59 14.21794 55.27734 35951 ft 540 kts 186°
2026-04-26 04:00 14.14301 55.26803 35954 ft 541 kts 186°
2026-04-26 04:00 14.06792 55.25871 35955 ft 542 kts 186°
2026-04-26 04:01 13.99273 55.24938 35958 ft 541 kts 186°
2026-04-26 04:01 13.91781 55.24009 35958 ft 540 kts 186°
2026-04-26 04:02 13.84261 55.23067 35946 ft 540 kts 186°
2026-04-26 04:02 13.76802 55.22125 35946 ft 541 kts 186°
2026-04-26 04:03 13.69260 55.21174 35947 ft 541 kts 186°
2026-04-26 04:03 13.61767 55.20230 35949 ft 539 kts 186°
2026-04-26 04:04 13.54330 55.19294 35949 ft 540 kts 186°
2026-04-26 04:04 13.46806 55.18348 35950 ft 540 kts 186°
2026-04-26 04:05 13.39289 55.17403 35951 ft 540 kts 186°
2026-04-26 04:05 13.31785 55.16460 35953 ft 539 kts 186°
2026-04-26 04:06 13.24314 55.15522 35954 ft 540 kts 186°
2026-04-26 04:06 13.16864 55.14588 35955 ft 539 kts 186°
2026-04-26 04:07 13.09353 55.13646 35955 ft 540 kts 186°
2026-04-26 04:07 13.01920 55.12715 35957 ft 539 kts 186°
2026-04-26 04:08 12.94459 55.11780 35956 ft 538 kts 186°
2026-04-26 04:08 12.86978 55.10844 35941 ft 537 kts 186°
2026-04-26 04:09 12.79511 55.09911 35942 ft 539 kts 186°
2026-04-26 04:09 12.72057 55.08979 35940 ft 540 kts 186°
2026-04-26 04:10 12.64582 55.08045 35934 ft 539 kts 185°
2026-04-26 04:10 12.57052 55.07105 35929 ft 539 kts 186°
2026-04-26 04:11 12.49561 55.06170 35929 ft 539 kts 186°
2026-04-26 04:11 12.42113 55.05242 35931 ft 540 kts 185°
2026-04-26 04:12 12.34629 55.04309 35931 ft 540 kts 185°
2026-04-26 04:12 12.27105 55.03372 35933 ft 540 kts 186°
2026-04-26 04:13 12.19631 55.02441 35934 ft 539 kts 185°
2026-04-26 04:13 12.12148 55.01511 35934 ft 540 kts 186°
2026-04-26 04:14 12.04662 55.00579 35935 ft 540 kts 185°
2026-04-26 04:14 11.97146 54.99989 35943 ft 538 kts 178°
2026-04-26 04:15 11.89624 54.99985 35939 ft 537 kts 178°
2026-04-26 04:16 11.74593 54.99996 35927 ft 538 kts 178°
2026-04-26 04:16 11.67098 54.99998 35929 ft 538 kts 178°
2026-04-26 04:17 11.59538 54.99999 35929 ft 538 kts 178°
2026-04-26 04:17 11.52010 54.99999 35932 ft 539 kts 178°
2026-04-26 04:18 11.44506 55.00000 35938 ft 537 kts 178°
2026-04-26 04:18 11.36961 55.00000 35941 ft 539 kts 178°
2026-04-26 04:19 11.29449 55.00000 35941 ft 537 kts 178°
2026-04-26 04:19 11.21962 55.00000 35939 ft 537 kts 178°
2026-04-26 04:20 11.14416 55.00000 35937 ft 538 kts 178°
2026-04-26 04:20 11.06890 55.00000 35939 ft 539 kts 178°
2026-04-26 04:21 10.99366 55.00000 35938 ft 537 kts 178°
2026-04-26 04:21 10.91830 55.00000 35936 ft 537 kts 178°
2026-04-26 04:22 10.84254 55.00000 35931 ft 538 kts 178°
2026-04-26 04:22 10.76761 55.00000 35940 ft 539 kts 178°
2026-04-26 04:23 10.69256 55.00000 35944 ft 537 kts 178°
2026-04-26 04:23 10.61717 55.00000 35952 ft 538 kts 178°
2026-04-26 04:24 10.54245 55.00000 35952 ft 537 kts 178°
2026-04-26 04:24 10.46745 55.00000 35953 ft 536 kts 178°
2026-04-26 04:25 10.39267 55.00000 35950 ft 538 kts 178°
2026-04-26 04:25 10.31753 55.00000 35953 ft 538 kts 178°
2026-04-26 04:26 10.24217 55.00000 35956 ft 537 kts 178°
2026-04-26 04:26 10.16708 55.00000 35952 ft 536 kts 178°
2026-04-26 04:27 10.09254 55.00000 35956 ft 538 kts 178°
2026-04-26 04:27 10.01738 55.00000 35958 ft 537 kts 178°
2026-04-26 04:28 9.94214 55.00000 35958 ft 538 kts 178°
2026-04-26 04:28 9.86695 55.00000 35939 ft 536 kts 178°
2026-04-26 04:29 9.79171 55.00000 35945 ft 536 kts 178°
2026-04-26 04:29 9.71718 55.00000 35943 ft 535 kts 178°
2026-04-26 04:30 9.64227 55.00000 35942 ft 535 kts 178°
2026-04-26 04:30 9.56746 55.00000 35941 ft 535 kts 178°
2026-04-26 04:31 9.49324 55.00000 35935 ft 533 kts 178°
2026-04-26 04:31 9.41822 55.00000 35931 ft 535 kts 178°
2026-04-26 04:32 9.34334 55.00000 35934 ft 534 kts 178°
2026-04-26 04:32 9.26846 55.00000 35932 ft 534 kts 178°
2026-04-26 04:33 9.19375 55.00000 35934 ft 533 kts 178°
2026-04-26 04:33 9.11938 55.00000 35936 ft 533 kts 178°
2026-04-26 04:34 9.04497 55.00000 35938 ft 532 kts 178°
2026-04-26 04:34 8.97093 55.00000 35939 ft 533 kts 178°
2026-04-26 04:35 8.89609 55.00000 35936 ft 531 kts 178°
2026-04-26 04:35 8.82151 55.00000 35924 ft 532 kts 178°
2026-04-26 04:36 8.74730 55.00000 35924 ft 530 kts 178°
2026-04-26 04:36 8.67295 55.00000 35930 ft 530 kts 178°
2026-04-26 04:37 8.59893 55.00000 35928 ft 530 kts 178°
2026-04-26 04:37 8.52484 55.00000 35930 ft 531 kts 179°
2026-04-26 04:38 8.45072 55.00000 35930 ft 530 kts 179°
2026-04-26 04:38 8.37699 55.00000 35931 ft 530 kts 179°
2026-04-26 04:39 8.30294 55.00000 35932 ft 528 kts 179°
2026-04-26 04:39 8.22935 55.00000 35933 ft 527 kts 179°
2026-04-26 04:40 8.15581 55.00000 35934 ft 527 kts 179°
2026-04-26 04:40 8.08209 55.00000 35935 ft 527 kts 179°
2026-04-26 04:41 8.00856 55.00000 35935 ft 527 kts 179°
2026-04-26 04:41 7.93487 55.00000 35933 ft 527 kts 179°
2026-04-26 04:42 7.86107 55.00000 35912 ft 527 kts 179°
2026-04-26 04:42 7.78772 55.00000 35906 ft 525 kts 179°
2026-04-26 04:43 7.71398 55.00000 35907 ft 526 kts 179°
2026-04-26 04:43 7.64055 55.00000 35907 ft 525 kts 179°
2026-04-26 04:44 7.56727 55.00000 35908 ft 522 kts 180°
2026-04-26 04:44 7.49443 55.00000 35907 ft 524 kts 179°
2026-04-26 04:45 7.42146 55.00000 35909 ft 523 kts 179°
2026-04-26 04:45 7.34821 55.00000 35911 ft 523 kts 180°
2026-04-26 04:46 7.27531 55.00000 35912 ft 521 kts 180°
2026-04-26 04:46 7.20264 55.00000 35912 ft 521 kts 180°
2026-04-26 04:47 7.12980 55.00000 35911 ft 520 kts 180°
2026-04-26 04:47 7.05666 55.00000 35914 ft 520 kts 180°
2026-04-26 04:48 6.94757 55.00000 35915 ft 519 kts 180°
2026-04-26 04:48 6.87490 55.00000 35906 ft 518 kts 180°
2026-04-26 04:49 6.80270 55.00000 35907 ft 518 kts 180°
2026-04-26 04:49 6.73071 55.00000 35907 ft 516 kts 180°
2026-04-26 04:50 6.65848 55.00000 35908 ft 517 kts 180°
2026-04-26 04:50 6.58639 55.00000 35909 ft 516 kts 180°
2026-04-26 04:51 6.51436 55.00000 35909 ft 516 kts 180°
2026-04-26 04:51 6.44208 55.00000 35911 ft 516 kts 180°
2026-04-26 04:52 6.37031 55.00000 35911 ft 515 kts 180°
2026-04-26 04:52 6.29859 55.00000 35911 ft 513 kts 180°
2026-04-26 04:53 6.22620 55.00000 35911 ft 513 kts 180°
2026-04-26 04:53 6.15470 55.00000 35918 ft 512 kts 180°
2026-04-26 04:54 6.08287 55.00000 35928 ft 512 kts 180°
2026-04-26 04:54 6.01117 55.00000 35934 ft 512 kts 180°
2026-04-26 04:55 5.93944 55.00000 35940 ft 512 kts 180°
2026-04-26 04:55 5.86801 55.00000 35928 ft 511 kts 180°
2026-04-26 04:56 5.79654 55.00000 35929 ft 512 kts 180°
2026-04-26 04:56 5.72519 55.00000 35931 ft 511 kts 180°
2026-04-26 04:57 5.65390 55.00000 35931 ft 511 kts 180°
2026-04-26 04:57 5.58220 55.00000 35926 ft 511 kts 180°
2026-04-26 04:58 5.51056 55.00000 35918 ft 511 kts 181°
2026-04-26 04:58 5.43906 55.00000 35915 ft 511 kts 181°
2026-04-26 04:59 5.36728 55.00089 35917 ft 511 kts 176°
2026-04-26 04:59 5.29627 55.00653 35912 ft 510 kts 176°
2026-04-26 05:00 5.22523 55.01214 35911 ft 511 kts 176°
2026-04-26 05:00 5.15402 55.01758 35912 ft 511 kts 176°
2026-04-26 05:01 5.08270 55.02294 35912 ft 511 kts 176°
2026-04-26 05:01 5.01135 55.02824 35914 ft 511 kts 176°
2026-04-26 05:02 4.94062 55.03346 35911 ft 509 kts 176°
2026-04-26 05:02 4.86889 55.03874 35906 ft 511 kts 176°
2026-04-26 05:03 4.79824 55.04393 35907 ft 510 kts 176°
2026-04-26 05:03 4.72677 55.04917 35909 ft 509 kts 176°
2026-04-26 05:04 4.65584 55.05438 35908 ft 509 kts 176°
2026-04-26 05:04 4.58487 55.05957 35910 ft 510 kts 176°
2026-04-26 05:05 4.51391 55.06477 35910 ft 510 kts 176°
2026-04-26 05:05 4.44268 55.06999 35910 ft 510 kts 176°
2026-04-26 05:06 4.37114 55.07523 35911 ft 510 kts 176°
2026-04-26 05:06 4.30023 55.08041 35910 ft 509 kts 176°
2026-04-26 05:07 4.22912 55.08562 35911 ft 508 kts 176°
2026-04-26 05:07 4.15836 55.09079 35912 ft 509 kts 176°
2026-04-26 05:08 4.08736 55.09599 35912 ft 510 kts 176°
2026-04-26 05:08 4.01611 55.10120 35914 ft 511 kts 176°
2026-04-26 05:09 3.94473 55.10643 35913 ft 509 kts 176°
2026-04-26 05:09 3.87373 55.11162 35908 ft 509 kts 176°
2026-04-26 05:10 3.80276 55.11682 35908 ft 510 kts 176°
2026-04-26 05:10 3.73158 55.12203 35909 ft 510 kts 176°
2026-04-26 05:11 3.66053 55.12722 35909 ft 510 kts 176°
2026-04-26 05:11 3.58962 55.13240 35915 ft 511 kts 176°
2026-04-26 05:12 3.51823 55.13763 35923 ft 511 kts 176°
2026-04-26 05:12 3.44730 55.14281 35925 ft 510 kts 176°
2026-04-26 05:13 3.37597 55.14803 35931 ft 510 kts 176°
2026-04-26 05:13 3.30502 55.15321 35932 ft 511 kts 176°
2026-04-26 05:14 3.23379 55.15842 35932 ft 510 kts 176°
2026-04-26 05:14 3.16242 55.16363 35933 ft 512 kts 176°
2026-04-26 05:15 3.09118 55.16884 35933 ft 512 kts 176°
2026-04-26 05:15 3.02023 55.17402 35933 ft 511 kts 176°
2026-04-26 05:16 2.94929 55.17920 35930 ft 512 kts 176°
2026-04-26 05:16 2.87772 55.18442 35923 ft 512 kts 176°
2026-04-26 05:17 2.80614 55.18965 35925 ft 511 kts 176°
2026-04-26 05:17 2.73419 55.19491 35921 ft 513 kts 176°
2026-04-26 05:18 2.66278 55.20012 35920 ft 512 kts 176°
2026-04-26 05:18 2.59134 55.20533 35917 ft 515 kts 176°
2026-04-26 05:19 2.51960 55.21057 35917 ft 513 kts 176°
2026-04-26 05:19 2.44772 55.21581 35913 ft 513 kts 176°
2026-04-26 05:20 2.37613 55.22104 35910 ft 513 kts 176°
2026-04-26 05:20 2.30457 55.22626 35909 ft 516 kts 176°
2026-04-26 05:21 2.23271 55.23150 35912 ft 515 kts 176°
2026-04-26 05:21 2.16081 55.23675 35912 ft 516 kts 176°
2026-04-26 05:22 2.08930 55.24196 35913 ft 515 kts 176°
2026-04-26 05:22 2.01693 55.24724 35911 ft 514 kts 176°
2026-04-26 05:23 1.94558 55.25245 35913 ft 514 kts 176°
2026-04-26 05:23 1.87330 55.25771 35906 ft 515 kts 176°
2026-04-26 05:24 1.80151 55.26295 35908 ft 517 kts 176°
2026-04-26 05:24 1.72959 55.26819 35908 ft 515 kts 176°
2026-04-26 05:25 1.65733 55.27346 35908 ft 515 kts 176°
2026-04-26 05:25 1.58570 55.27868 35909 ft 515 kts 176°
2026-04-26 05:26 1.51333 55.28395 35909 ft 514 kts 176°
2026-04-26 05:26 1.44136 55.28920 35910 ft 516 kts 176°
2026-04-26 05:27 1.36950 55.29444 35910 ft 515 kts 176°
2026-04-26 05:27 1.29758 55.29968 35912 ft 516 kts 176°
2026-04-26 05:28 1.22568 55.30490 35912 ft 515 kts 176°
2026-04-26 05:28 1.15384 55.31013 35912 ft 514 kts 176°
2026-04-26 05:29 1.08201 55.31535 35914 ft 515 kts 176°
2026-04-26 05:29 1.01034 55.32056 35923 ft 515 kts 176°
2026-04-26 05:30 0.93832 55.32579 35932 ft 515 kts 176°
2026-04-26 05:30 0.86711 55.33097 35927 ft 514 kts 176°
2026-04-26 05:31 0.79538 55.33619 35928 ft 513 kts 176°
2026-04-26 05:31 0.72400 55.34137 35928 ft 514 kts 176°
2026-04-26 05:32 0.65220 55.34660 35929 ft 515 kts 176°
2026-04-26 05:32 0.58048 55.35181 35928 ft 514 kts 176°
2026-04-26 05:33 0.50892 55.35701 35927 ft 512 kts 176°
2026-04-26 05:33 0.43729 55.36221 35924 ft 512 kts 176°
2026-04-26 05:34 0.36602 55.36739 35924 ft 513 kts 176°
2026-04-26 05:34 0.29413 55.37262 35921 ft 513 kts 176°
2026-04-26 05:35 0.22282 55.37780 35921 ft 512 kts 176°
2026-04-26 05:35 0.15162 55.38298 35924 ft 511 kts 176°
2026-04-26 05:36 0.08046 55.38815 35925 ft 509 kts 176°
2026-04-26 05:36 0.00957 55.39330 35924 ft 509 kts 177°
2026-04-26 05:37 -0.06158 55.39847 35926 ft 511 kts 176°
2026-04-26 05:37 -0.13294 55.40366 35917 ft 509 kts 177°
2026-04-26 05:38 -0.20388 55.40881 35912 ft 510 kts 177°
2026-04-26 05:38 -0.27498 55.41398 35913 ft 510 kts 176°
2026-04-26 05:39 -0.34644 55.41918 35910 ft 508 kts 176°
2026-04-26 05:39 -0.41767 55.42435 35912 ft 509 kts 176°
2026-04-26 05:40 -0.48821 55.42948 35913 ft 508 kts 176°
2026-04-26 05:40 -0.55970 55.43468 35912 ft 508 kts 176°
2026-04-26 05:41 -0.63066 55.43984 35913 ft 508 kts 176°
2026-04-26 05:41 -0.70123 55.44497 35912 ft 507 kts 176°
2026-04-26 05:42 -0.77165 55.45008 35913 ft 507 kts 176°
2026-04-26 05:42 -0.84226 55.45522 35913 ft 506 kts 176°
2026-04-26 05:43 -0.91276 55.46034 35913 ft 507 kts 176°
2026-04-26 05:43 -0.98369 55.46579 35907 ft 507 kts 173°
2026-04-26 05:44 -1.05396 55.47652 35915 ft 508 kts 171°
2026-04-26 05:44 -1.12421 55.48749 35909 ft 507 kts 172°
2026-04-26 05:45 -1.19487 55.49834 35908 ft 507 kts 172°
2026-04-26 05:45 -1.26502 55.50899 35911 ft 507 kts 172°
2026-04-26 05:46 -1.33501 55.51956 35909 ft 506 kts 172°
2026-04-26 05:46 -1.40508 55.53011 35909 ft 506 kts 172°
2026-04-26 05:47 -1.47501 55.54062 35909 ft 506 kts 172°
2026-04-26 05:47 -1.54503 55.55113 35920 ft 506 kts 172°
2026-04-26 05:48 -1.61543 55.56169 35932 ft 507 kts 172°
2026-04-26 05:48 -1.68538 55.57219 35933 ft 507 kts 172°
2026-04-26 05:49 -1.79031 55.58792 35931 ft 506 kts 172°
2026-04-26 05:50 -1.86036 55.59843 35931 ft 506 kts 172°
2026-04-26 05:50 -1.93002 55.60888 35933 ft 506 kts 172°
2026-04-26 05:51 -2.00006 55.61939 35935 ft 506 kts 171°
2026-04-26 05:51 -2.06994 55.62987 35931 ft 506 kts 172°
2026-04-26 05:52 -2.13999 55.64039 35931 ft 505 kts 172°
2026-04-26 05:52 -2.21011 55.65091 35925 ft 505 kts 172°
2026-04-26 05:53 -2.27998 55.66139 35919 ft 506 kts 172°
2026-04-26 05:53 -2.35049 55.67197 35918 ft 507 kts 172°
2026-04-26 05:54 -2.42089 55.68254 35915 ft 507 kts 172°
2026-04-26 05:54 -2.49107 55.69307 35914 ft 506 kts 172°
2026-04-26 05:55 -2.56150 55.70365 35917 ft 506 kts 172°
2026-04-26 05:55 -2.63122 55.71412 35916 ft 506 kts 172°
2026-04-26 05:56 -2.70184 55.72472 35915 ft 507 kts 172°
2026-04-26 05:56 -2.77181 55.73523 35913 ft 507 kts 172°
2026-04-26 05:57 -2.84189 55.74575 35911 ft 508 kts 172°
2026-04-26 05:57 -2.91213 55.75631 35911 ft 506 kts 172°
2026-04-26 05:58 -2.98191 55.76679 35911 ft 506 kts 172°
2026-04-26 05:58 -3.05227 55.77736 35911 ft 506 kts 172°
2026-04-26 05:59 -3.12207 55.78785 35429 ft 502 kts 172°
2026-04-26 05:59 -3.15714 55.79313 34287 ft 508 kts 172°
2026-04-26 05:59 -3.19235 55.79842 33318 ft 510 kts 172°
2026-04-26 05:59 -3.22750 55.80370 32444 ft 511 kts 172°
2026-04-26 06:00 -3.26290 55.80902 31603 ft 513 kts 172°
2026-04-26 06:00 -3.29804 55.81430 30712 ft 515 kts 172°
2026-04-26 06:00 -3.33402 55.81971 30085 ft 510 kts 172°
2026-04-26 06:00 -3.36906 55.82498 29606 ft 503 kts 172°
2026-04-26 06:01 -3.40325 55.83013 29086 ft 497 kts 172°
2026-04-26 06:01 -3.43718 55.83523 28535 ft 491 kts 172°
2026-04-26 06:01 -3.47120 55.84034 27989 ft 486 kts 172°
2026-04-26 06:01 -3.50477 55.84539 27425 ft 482 kts 172°
2026-04-26 06:02 -3.53793 55.85038 26869 ft 478 kts 172°
2026-04-26 06:02 -3.57055 55.85529 26311 ft 473 kts 172°
2026-04-26 06:02 -3.60331 55.86021 25747 ft 469 kts 172°
2026-04-26 06:02 -3.63527 55.86503 25193 ft 465 kts 172°
2026-04-26 06:03 -3.66743 55.86986 24631 ft 461 kts 172°
2026-04-26 06:03 -3.69907 55.87462 24071 ft 457 kts 172°
2026-04-26 06:03 -3.73015 55.87930 23575 ft 452 kts 172°
2026-04-26 06:03 -3.76137 55.88399 23079 ft 447 kts 172°
2026-04-26 06:04 -3.79229 55.88865 22544 ft 443 kts 172°
2026-04-26 06:04 -3.82242 55.89318 22005 ft 439 kts 171°
2026-04-26 06:04 -3.85292 55.89777 21440 ft 437 kts 171°
2026-04-26 06:04 -3.88287 55.90228 20890 ft 434 kts 171°
2026-04-26 06:05 -3.91264 55.90676 20326 ft 431 kts 171°
2026-04-26 06:05 -3.94227 55.91122 19755 ft 429 kts 171°
2026-04-26 06:05 -3.97160 55.91563 19193 ft 426 kts 170°
2026-04-26 06:05 -4.00100 55.92006 18633 ft 423 kts 170°
2026-04-26 06:06 -4.03016 55.92445 18067 ft 421 kts 170°
2026-04-26 06:06 -4.05907 55.92880 17497 ft 418 kts 170°
2026-04-26 06:06 -4.08803 55.93316 16922 ft 416 kts 170°
2026-04-26 06:06 -4.11668 55.93748 16369 ft 413 kts 170°
2026-04-26 06:07 -4.14519 55.94178 15801 ft 411 kts 170°
2026-04-26 06:07 -4.17359 55.94606 15226 ft 409 kts 170°
2026-04-26 06:07 -4.20147 55.95026 14653 ft 408 kts 170°
2026-04-26 06:07 -4.22970 55.95451 14084 ft 405 kts 170°
2026-04-26 06:08 -4.25754 55.95870 13510 ft 404 kts 170°
2026-04-26 06:08 -4.28560 55.96293 12928 ft 402 kts 171°
2026-04-26 06:08 -4.31325 55.96710 12351 ft 400 kts 171°
2026-04-26 06:08 -4.34047 55.97120 11763 ft 396 kts 171°
2026-04-26 06:09 -4.36759 55.97529 11412 ft 383 kts 171°
2026-04-26 06:09 -4.39339 55.97918 11222 ft 366 kts 171°
2026-04-26 06:09 -4.41835 55.98294 11134 ft 348 kts 171°
2026-04-26 06:09 -4.44159 55.98644 11049 ft 331 kts 171°
2026-04-26 06:10 -4.46407 55.98983 11031 ft 313 kts 171°
2026-04-26 06:10 -4.48524 55.99302 10912 ft 302 kts 171°
2026-04-26 06:10 -4.50601 55.99616 10523 ft 302 kts 171°
2026-04-26 06:10 -4.52673 55.99928 10151 ft 300 kts 171°
2026-04-26 06:11 -4.54758 56.00243 9793 ft 299 kts 172°
2026-04-26 06:11 -4.56801 56.00550 9500 ft 296 kts 172°
2026-04-26 06:11 -4.58833 56.00857 9172 ft 295 kts 172°
2026-04-26 06:11 -4.60864 56.01163 8850 ft 293 kts 172°
2026-04-26 06:12 -4.62905 56.01471 8531 ft 291 kts 172°
2026-04-26 06:12 -4.64901 56.01643 8174 ft 289 kts 187°
2026-04-26 06:12 -4.66786 56.01035 7906 ft 280 kts 212°
2026-04-26 06:12 -4.68210 55.99757 7694 ft 271 kts 236°
2026-04-26 06:13 -4.69108 55.98113 7396 ft 267 kts 248°
2026-04-26 06:13 -4.69728 55.96382 7105 ft 265 kts 253°
2026-04-26 06:13 -4.70250 55.94607 6799 ft 264 kts 255°
2026-04-26 06:13 -4.70736 55.92849 6531 ft 261 kts 255°
2026-04-26 06:14 -4.71217 55.91089 6230 ft 260 kts 255°
2026-04-26 06:14 -4.71693 55.89346 5935 ft 259 kts 255°
2026-04-26 06:14 -4.72174 55.87582 5618 ft 258 kts 255°
2026-04-26 06:14 -4.72645 55.85854 5333 ft 257 kts 255°
2026-04-26 06:15 -4.73117 55.84125 5066 ft 255 kts 255°
2026-04-26 06:15 -4.73645 55.82451 4990 ft 255 kts 243°
2026-04-26 06:15 -4.74814 55.81093 4980 ft 259 kts 214°
2026-04-26 06:15 -4.76478 55.80409 4994 ft 261 kts 197°
2026-04-26 06:16 -4.78274 55.80112 4980 ft 263 kts 178°
2026-04-26 06:16 -4.80066 55.80549 4995 ft 266 kts 161°
2026-04-26 06:16 -4.81730 55.81363 4978 ft 267 kts 142°
2026-04-26 06:16 -4.82884 55.82827 4975 ft 269 kts 114°
2026-04-26 06:17 -4.83219 55.84643 4973 ft 267 kts 85°
2026-04-26 06:17 -4.82836 55.86456 4993 ft 263 kts 74°
2026-04-26 06:17 -4.82337 55.88197 4995 ft 260 kts 73°
2026-04-26 06:17 -4.81829 55.89961 4997 ft 261 kts 73°
2026-04-26 06:18 -4.81332 55.91698 5001 ft 261 kts 73°
2026-04-26 06:18 -4.80837 55.93434 5003 ft 260 kts 73°
2026-04-26 06:18 -4.80335 55.95193 5006 ft 260 kts 73°
2026-04-26 06:18 -4.79841 55.96930 5007 ft 260 kts 73°
2026-04-26 06:19 -4.79340 55.98682 5004 ft 260 kts 73°
2026-04-26 06:19 -4.78838 56.00438 5003 ft 259 kts 73°
2026-04-26 06:19 -4.78337 56.02178 4999 ft 260 kts 73°
2026-04-26 06:19 -4.77827 56.03939 4995 ft 261 kts 73°
2026-04-26 06:20 -4.77317 56.05691 4989 ft 261 kts 73°
2026-04-26 06:20 -4.76806 56.07442 4988 ft 260 kts 73°
2026-04-26 06:20 -4.76299 56.09189 4989 ft 260 kts 74°
2026-04-26 06:20 -4.76111 56.10955 4976 ft 259 kts 100°
2026-04-26 06:21 -4.76785 56.12619 4974 ft 258 kts 129°
2026-04-26 06:21 -4.78180 56.13746 4974 ft 256 kts 159°
2026-04-26 06:21 -4.79895 56.14159 4990 ft 254 kts 173°
2026-04-26 06:21 -4.81671 56.14391 4988 ft 254 kts 174°
2026-04-26 06:22 -4.83428 56.14608 4986 ft 254 kts 174°
2026-04-26 06:22 -4.85197 56.14825 4987 ft 254 kts 174°
2026-04-26 06:22 -4.86964 56.15041 4986 ft 252 kts 174°
2026-04-26 06:22 -4.88663 56.15252 4983 ft 239 kts 174°
2026-04-26 06:23 -4.90296 56.15408 4975 ft 230 kts 186°
2026-04-26 06:23 -4.91806 56.14930 4983 ft 227 kts 211°
2026-04-26 06:23 -4.93159 56.14094 4988 ft 227 kts 214°
2026-04-26 06:23 -4.94448 56.13189 4976 ft 226 kts 227°
2026-04-26 06:24 -4.95322 56.11877 4991 ft 226 kts 243°
2026-04-26 06:24 -4.96023 56.10481 4989 ft 225 kts 245°
2026-04-26 06:24 -4.96403 56.08967 4972 ft 223 kts 274°
2026-04-26 06:24 -4.96117 56.07446 4987 ft 225 kts 284°
2026-04-26 06:25 -4.95713 56.05906 4993 ft 224 kts 284°
2026-04-26 06:25 -4.95311 56.04401 4991 ft 224 kts 284°
2026-04-26 06:25 -4.94905 56.02888 4990 ft 225 kts 284°
2026-04-26 06:25 -4.94498 56.01376 4988 ft 224 kts 284°
2026-04-26 06:26 -4.94096 55.99878 4988 ft 223 kts 284°
2026-04-26 06:26 -4.93688 55.98363 4988 ft 225 kts 284°
2026-04-26 06:26 -4.93274 55.96837 4989 ft 225 kts 284°
2026-04-26 06:26 -4.92861 55.95329 4988 ft 225 kts 284°
2026-04-26 06:27 -4.92445 55.93821 4988 ft 225 kts 284°
2026-04-26 06:27 -4.92027 55.92313 4989 ft 225 kts 284°
2026-04-26 06:27 -4.91611 55.90806 4989 ft 224 kts 284°
2026-04-26 06:27 -4.91224 55.89268 4985 ft 225 kts 278°
2026-04-26 06:28 -4.90973 55.87749 4988 ft 225 kts 283°
2026-04-26 06:28 -4.90519 55.86247 4987 ft 225 kts 290°
2026-04-26 06:28 -4.89894 55.84804 4988 ft 224 kts 295°
2026-04-26 06:28 -4.89156 55.83412 4989 ft 224 kts 298°
2026-04-26 06:29 -4.88359 55.82075 4990 ft 225 kts 301°
2026-04-26 06:29 -4.87514 55.80753 4969 ft 224 kts 302°
2026-04-26 06:29 -4.86642 55.79445 4963 ft 225 kts 303°
2026-04-26 06:29 -4.85760 55.78158 4970 ft 225 kts 303°
2026-04-26 06:30 -4.84866 55.76881 4954 ft 216 kts 304°
2026-04-26 06:30 -4.83997 55.75657 4953 ft 215 kts 304°
2026-04-26 06:30 -4.83122 55.74432 4841 ft 219 kts 304°
2026-04-26 06:30 -4.82228 55.73178 4556 ft 219 kts 304°
2026-04-26 06:31 -4.81355 55.71949 4278 ft 218 kts 304°
2026-04-26 06:31 -4.80473 55.70703 3993 ft 217 kts 303°
2026-04-26 06:31 -4.79606 55.69473 3715 ft 216 kts 303°
2026-04-26 06:31 -4.78746 55.68250 3440 ft 215 kts 303°
2026-04-26 06:32 -4.77878 55.67018 3153 ft 214 kts 303°
2026-04-26 06:32 -4.77026 55.65806 2872 ft 214 kts 304°
2026-04-26 06:32 -4.76169 55.64589 2585 ft 209 kts 303°
2026-04-26 06:32 -4.75333 55.63402 2308 ft 204 kts 304°
2026-04-26 06:33 -4.74525 55.62254 2041 ft 200 kts 303°
2026-04-26 06:33 -4.73732 55.61127 1782 ft 192 kts 303°
2026-04-26 06:33 -4.72998 55.60084 1539 ft 179 kts 303°
2026-04-26 06:33 -4.72282 55.59065 1305 ft 175 kts 303°
2026-04-26 06:34 -4.71608 55.58107 1095 ft 163 kts 303°
2026-04-26 06:34 -4.70968 55.57197 895 ft 159 kts 304°
2026-04-26 06:34 -4.70336 55.56302 669 ft 153 kts 303°
2026-04-26 06:34 -4.69716 55.55423 495 ft 157 kts 305°
2026-04-26 06:35 -4.69071 55.54521 314 ft 156 kts 304°
2026-04-26 06:35 -4.68444 55.53625 175 ft 157 kts 304°
2026-04-26 06:35 -4.67826 55.52742 21 ft 148 kts 305°
2026-04-26 06:35 -4.67364 55.52082 23 ft 83 kts 304°
2026-04-26 06:36 -4.67144 55.51765 26 ft 42 kts 305°
2026-04-26 06:36 -4.66996 55.51562 26 ft 22 kts 304°
2026-04-26 06:36 -4.66944 55.51487 26 ft 11 kts 304°
2026-04-26 06:36 -4.66901 55.51424 26 ft 10 kts 303°
2026-04-26 06:37 -4.66906 55.51377 26 ft 6 kts 233°
2026-04-26 06:37 -4.66936 55.51352 26 ft 5 kts 213°
2026-04-26 06:37 -4.66967 55.51332 26 ft 5 kts 213°
2026-04-26 06:37 -4.66997 55.51311 26 ft 5 kts 213°
2026-04-26 06:38 -4.67020 55.51290 26 ft 3 kts 242°
2026-04-26 06:38 -4.67023 55.51268 26 ft 2 kts 281°
2026-04-26 06:38 -4.67015 55.51252 26 ft 2 kts 303°
2026-04-26 06:38 -4.67006 55.51237 26 ft 2 kts 293°
2026-04-26 06:39 -4.67005 55.51226 26 ft 1 kts 264°
2026-04-26 06:39 -4.67007 55.51221 26 ft 0 kts 246°
2026-04-26 06:39 -4.67009 55.51218 26 ft 1 kts 227°
2026-04-26 06:39 -4.67019 55.51212 26 ft 1 kts 210°
2026-04-26 06:40 -4.67029 55.51206 26 ft 1 kts 210°
2026-04-26 06:40 -4.67036 55.51201 26 ft 0 kts 213°
2026-04-26 06:40 -4.67037 55.51201 26 ft 0 kts 213°